Time,TemperatureF,DewpointF,PressureIn,WindDirection,WindDirectionDegrees,WindSpeedMPH,WindSpeedGustMPH,Humidity,HourlyPrecipIn,Conditions,Clouds,dailyrainin,SoftwareType,DateUTC
2013-03-12 00:00:00,36.0,29.2,29.95,NW,304,7.0,7.0,76,0.00,,,0.00,Wunderground v.1.15,2013-03-12 04:00:00,
2013-03-12 00:02:00,36.0,28.8,29.95,West,263,7.0,13.0,75,0.00,,,0.00,Wunderground v.1.15,2013-03-12 04:02:00,
2013-03-12 00:05:00,36.0,28.8,29.95,West,271,7.0,14.0,75,0.00,,,0.00,Wunderground v.1.15,2013-03-12 04:05:00,
2013-03-12 00:06:00,36.0,28.8,29.95,WNW,289,7.0,14.0,75,0.00,,,0.00,Wunderground v.1.15,2013-03-12 04:06:00,
2013-03-12 00:07:00,36.0,28.8,29.95,West,267,7.0,14.0,75,0.00,,,0.00,Wunderground v.1.15,2013-03-12 04:07:00,
2013-03-12 00:12:00,36.0,28.8,29.95,WNW,302,6.0,6.0,75,0.00,,,0.00,Wunderground v.1.15,2013-03-12 04:12:00,
2013-03-12 00:15:00,36.0,28.8,29.95,West,278,6.0,10.0,75,0.00,,,0.00,Wunderground v.1.15,2013-03-12 04:15:00,
2013-03-12 00:16:00,36.0,28.8,29.95,WNW,301,6.0,10.0,75,0.00,,,0.00,Wunderground v.1.15,2013-03-12 04:16:00,
2013-03-12 00:18:00,36.0,28.8,29.95,West,267,6.0,10.0,75,0.00,,,0.00,Wunderground v.1.15,2013-03-12 04:18:00,
2013-03-12 00:19:00,36.0,28.5,29.95,West,265,6.0,10.0,74,0.00,,,0.00,Wunderground v.1.15,2013-03-12 04:19:00,
2013-03-12 00:23:00,36.0,28.8,29.95,NNW,335,6.0,13.0,75,0.00,,,0.00,Wunderground v.1.15,2013-03-12 04:23:00,
2013-03-12 00:25:00,36.0,28.5,29.95,WNW,298,5.0,13.0,74,0.00,,,0.00,Wunderground v.1.15,2013-03-12 04:25:00,
2013-03-12 00:27:00,36.0,28.5,29.95,West,274,4.0,13.0,74,0.00,,,0.00,Wunderground v.1.15,2013-03-12 04:27:00,
2013-03-12 00:31:00,36.0,28.5,29.96,SSW,213,6.0,11.0,74,0.00,,,0.00,Wunderground v.1.15,2013-03-12 04:31:00,
2013-03-12 00:33:00,36.0,28.5,29.96,West,280,7.0,11.0,74,0.00,,,0.00,Wunderground v.1.15,2013-03-12 04:33:00,
2013-03-12 00:34:00,36.0,28.5,29.96,WNW,302,6.0,11.0,74,0.00,,,0.00,Wunderground v.1.15,2013-03-12 04:34:00,
2013-03-12 00:38:00,36.0,28.5,29.96,WSW,257,7.0,11.0,74,0.00,,,0.00,Wunderground v.1.15,2013-03-12 04:38:00,
2013-03-12 00:42:00,36.0,28.8,29.96,West,260,5.0,6.0,75,0.00,,,0.00,Wunderground v.1.15,2013-03-12 04:42:00,
2013-03-12 00:44:00,35.8,28.6,29.96,WNW,285,5.0,6.0,75,0.00,,,0.00,Wunderground v.1.15,2013-03-12 04:44:00,
2013-03-12 00:48:00,35.8,28.6,29.96,SW,229,5.0,13.0,75,0.00,,,0.00,Wunderground v.1.15,2013-03-12 04:48:00,
2013-03-12 00:49:00,35.8,28.6,29.96,West,278,5.0,13.0,75,0.00,,,0.00,Wunderground v.1.15,2013-03-12 04:49:00,
2013-03-12 00:51:00,35.8,28.6,29.96,West,265,5.0,6.0,75,0.00,,,0.00,Wunderground v.1.15,2013-03-12 04:51:00,
2013-03-12 00:53:00,35.8,28.6,29.96,WNW,296,5.0,7.0,75,0.00,,,0.00,Wunderground v.1.15,2013-03-12 04:53:00,
2013-03-12 00:57:00,35.8,29.0,29.96,West,270,4.0,12.0,76,0.00,,,0.00,Wunderground v.1.15,2013-03-12 04:57:00,
2013-03-12 00:58:00,35.8,29.0,29.96,WNW,282,4.0,12.0,76,0.00,,,0.00,Wunderground v.1.15,2013-03-12 04:58:00,
2013-03-12 00:59:00,35.8,28.6,29.96,WNW,301,4.0,12.0,75,0.00,,,0.00,Wunderground v.1.15,2013-03-12 04:59:00,
2013-03-12 01:00:00,35.8,29.0,29.96,WNW,291,4.0,5.0,76,0.00,,,0.00,Wunderground v.1.15,2013-03-12 05:00:00,
2013-03-12 01:04:00,35.8,29.0,29.96,WNW,295,4.0,7.0,76,0.00,,,0.00,Wunderground v.1.15,2013-03-12 05:04:00,
2013-03-12 01:06:00,35.8,29.0,29.96,WSW,256,5.0,8.0,76,0.00,,,0.00,Wunderground v.1.15,2013-03-12 05:06:00,
2013-03-12 01:07:00,35.8,29.0,29.96,WNW,282,4.0,8.0,76,0.00,,,0.00,Wunderground v.1.15,2013-03-12 05:07:00,
2013-03-12 01:08:00,35.7,28.9,29.96,NW,323,4.0,8.0,76,0.00,,,0.00,Wunderground v.1.15,2013-03-12 05:08:00,
2013-03-12 01:10:00,35.7,28.9,29.96,WNW,282,4.0,4.0,76,0.00,,,0.00,Wunderground v.1.15,2013-03-12 05:10:00,
2013-03-12 01:13:00,35.7,28.9,29.96,West,271,4.0,4.0,76,0.00,,,0.00,Wunderground v.1.15,2013-03-12 05:13:00,
2013-03-12 01:15:00,35.7,28.9,29.96,West,281,4.0,7.0,76,0.00,,,0.00,Wunderground v.1.15,2013-03-12 05:15:00,
2013-03-12 01:17:00,35.7,28.9,29.96,WSW,248,4.0,11.0,76,0.00,,,0.00,Wunderground v.1.15,2013-03-12 05:17:00,
2013-03-12 01:18:00,35.7,28.9,29.96,WNW,292,4.0,11.0,76,0.00,,,0.00,Wunderground v.1.15,2013-03-12 05:18:00,
2013-03-12 01:22:00,35.5,28.4,29.96,West,280,5.0,17.0,75,0.00,,,0.00,Wunderground v.1.15,2013-03-12 05:22:00,
2013-03-12 01:23:00,35.5,28.4,29.96,NW,304,5.0,17.0,75,0.00,,,0.00,Wunderground v.1.15,2013-03-12 05:23:00,
2013-03-12 01:24:00,35.5,28.4,29.96,WNW,282,6.0,17.0,75,0.00,,,0.00,Wunderground v.1.15,2013-03-12 05:24:00,
2013-03-12 01:26:00,35.5,28.4,29.96,NW,304,5.0,17.0,75,0.00,,,0.00,Wunderground v.1.15,2013-03-12 05:26:00,
2013-03-12 01:28:00,35.5,28.4,29.96,NW,315,5.0,17.0,75,0.00,,,0.00,Wunderground v.1.15,2013-03-12 05:28:00,
2013-03-12 01:31:00,35.5,28.4,29.96,West,270,5.0,9.0,75,0.00,,,0.00,Wunderground v.1.15,2013-03-12 05:31:00,
2013-03-12 01:33:00,35.5,28.0,29.96,WNW,291,4.0,9.0,74,0.00,,,0.00,Wunderground v.1.15,2013-03-12 05:33:00,
2013-03-12 01:35:00,35.5,28.4,29.96,WNW,295,4.0,9.0,75,0.00,,,0.00,Wunderground v.1.15,2013-03-12 05:35:00,
2013-03-12 01:37:00,35.5,28.4,29.96,WNW,288,4.0,9.0,75,0.00,,,0.00,Wunderground v.1.15,2013-03-12 05:37:00,
2013-03-12 01:38:00,35.5,28.0,29.96,WSW,258,4.0,9.0,74,0.00,,,0.00,Wunderground v.1.15,2013-03-12 05:38:00,
2013-03-12 01:39:00,35.5,28.0,29.96,WNW,285,5.0,6.0,74,0.00,,,0.00,Wunderground v.1.15,2013-03-12 05:39:00,
2013-03-12 01:41:00,35.5,28.0,29.96,West,274,5.0,6.0,74,0.00,,,0.00,Wunderground v.1.15,2013-03-12 05:41:00,
2013-03-12 01:43:00,35.5,28.0,29.96,West,270,5.0,6.0,74,0.00,,,0.00,Wunderground v.1.15,2013-03-12 05:43:00,
2013-03-12 01:45:00,35.5,28.0,29.96,West,280,5.0,6.0,74,0.00,,,0.00,Wunderground v.1.15,2013-03-12 05:45:00,
2013-03-12 01:47:00,35.5,28.0,29.96,NW,311,6.0,6.0,74,0.00,,,0.00,Wunderground v.1.15,2013-03-12 05:47:00,
2013-03-12 01:50:00,35.5,28.0,29.96,West,280,5.0,5.0,74,0.00,,,0.00,Wunderground v.1.15,2013-03-12 05:50:00,
2013-03-12 01:53:00,35.4,27.6,29.96,NW,320,5.0,6.0,73,0.00,,,0.00,Wunderground v.1.15,2013-03-12 05:53:00,
2013-03-12 01:54:00,35.4,27.6,29.96,WNW,292,5.0,7.0,73,0.00,,,0.00,Wunderground v.1.15,2013-03-12 05:54:00,
2013-03-12 01:59:00,35.4,27.6,29.96,West,263,6.0,12.0,73,0.00,,,0.00,Wunderground v.1.15,2013-03-12 05:59:00,
2013-03-12 02:00:00,35.4,27.6,29.96,WNW,294,6.0,7.0,73,0.00,,,0.00,Wunderground v.1.15,2013-03-12 06:00:00,
2013-03-12 02:03:00,35.4,27.6,29.96,NW,309,6.0,7.0,73,0.00,,,0.00,Wunderground v.1.15,2013-03-12 06:03:00,
2013-03-12 02:04:00,35.4,27.6,29.96,WNW,287,7.0,7.0,73,0.00,,,0.00,Wunderground v.1.15,2013-03-12 06:04:00,
2013-03-12 02:06:00,35.4,27.6,29.96,WNW,301,7.0,7.0,73,0.00,,,0.00,Wunderground v.1.15,2013-03-12 06:06:00,
2013-03-12 02:08:00,35.4,27.6,29.96,WNW,294,7.0,8.0,73,0.00,,,0.00,Wunderground v.1.15,2013-03-12 06:08:00,
2013-03-12 02:10:00,35.4,27.6,29.96,WNW,291,6.0,7.0,73,0.00,,,0.00,Wunderground v.1.15,2013-03-12 06:10:00,
2013-03-12 02:12:00,35.4,27.6,29.96,NW,305,6.0,7.0,73,0.00,,,0.00,Wunderground v.1.15,2013-03-12 06:12:00,
2013-03-12 02:14:00,35.4,27.6,29.96,West,272,5.0,7.0,73,0.00,,,0.00,Wunderground v.1.15,2013-03-12 06:14:00,
2013-03-12 02:19:00,35.4,27.6,29.97,WSW,258,5.0,10.0,73,0.00,,,0.00,Wunderground v.1.15,2013-03-12 06:19:00,
2013-03-12 02:20:00,35.4,27.6,29.97,West,275,5.0,5.0,73,0.00,,,0.00,Wunderground v.1.15,2013-03-12 06:20:00,
2013-03-12 02:22:00,35.4,27.3,29.97,NW,309,5.0,5.0,72,0.00,,,0.00,Wunderground v.1.15,2013-03-12 06:22:00,
2013-03-12 02:23:00,35.4,27.3,29.97,WNW,285,5.0,6.0,72,0.00,,,0.00,Wunderground v.1.15,2013-03-12 06:23:00,
2013-03-12 02:25:00,35.4,27.6,29.97,West,278,5.0,6.0,73,0.00,,,0.00,Wunderground v.1.15,2013-03-12 06:25:00,
2013-03-12 02:27:00,35.4,27.6,29.97,WNW,294,5.0,6.0,73,0.00,,,0.00,Wunderground v.1.15,2013-03-12 06:27:00,
2013-03-12 02:29:00,35.4,27.6,29.97,NW,319,5.0,6.0,73,0.00,,,0.00,Wunderground v.1.15,2013-03-12 06:29:00,
2013-03-12 02:30:00,35.4,27.6,29.97,WNW,295,4.0,4.0,73,0.00,,,0.00,Wunderground v.1.15,2013-03-12 06:30:00,
2013-03-12 02:33:00,35.4,27.6,29.97,WNW,301,3.0,4.0,73,0.00,,,0.00,Wunderground v.1.15,2013-03-12 06:33:00,
2013-03-12 02:34:00,35.4,27.6,29.97,WNW,291,3.0,6.0,73,0.00,,,0.00,Wunderground v.1.15,2013-03-12 06:34:00,
2013-03-12 02:37:00,35.4,27.3,29.97,WNW,301,3.0,6.0,72,0.00,,,0.00,Wunderground v.1.15,2013-03-12 06:37:00,
2013-03-12 02:39:00,35.2,27.4,29.97,WNW,291,3.0,6.0,73,0.00,,,0.00,Wunderground v.1.15,2013-03-12 06:39:00,
2013-03-12 02:42:00,35.2,27.4,29.97,WNW,302,3.0,3.0,73,0.00,,,0.00,Wunderground v.1.15,2013-03-12 06:42:00,
2013-03-12 02:44:00,35.2,27.4,29.97,WNW,301,3.0,3.0,73,0.00,,,0.00,Wunderground v.1.15,2013-03-12 06:44:00,
2013-03-12 02:45:00,35.2,27.4,29.97,WNW,295,2.0,3.0,73,0.00,,,0.00,Wunderground v.1.15,2013-03-12 06:45:00,
2013-03-12 02:48:00,35.2,27.4,29.97,WSW,253,2.0,8.0,73,0.00,,,0.00,Wunderground v.1.15,2013-03-12 06:48:00,
2013-03-12 02:50:00,35.2,27.4,29.97,WSW,247,2.0,2.0,73,0.00,,,0.00,Wunderground v.1.15,2013-03-12 06:50:00,
2013-03-12 02:51:00,35.2,27.4,29.97,West,277,2.0,2.0,73,0.00,,,0.00,Wunderground v.1.15,2013-03-12 06:51:00,
2013-03-12 02:54:00,35.2,27.4,29.97,West,277,2.0,5.0,73,0.00,,,0.00,Wunderground v.1.15,2013-03-12 06:54:00,
2013-03-12 02:55:00,35.2,27.4,29.97,NW,312,2.0,5.0,73,0.00,,,0.00,Wunderground v.1.15,2013-03-12 06:55:00,
2013-03-12 02:57:00,35.2,27.4,29.97,WNW,288,2.0,5.0,73,0.00,,,0.00,Wunderground v.1.15,2013-03-12 06:57:00,
2013-03-12 02:58:00,35.2,27.7,29.97,WNW,285,2.0,5.0,74,0.00,,,0.00,Wunderground v.1.15,2013-03-12 06:58:00,
2013-03-12 03:00:00,35.2,27.7,29.98,NW,315,2.0,2.0,74,0.00,,,0.00,Wunderground v.1.15,2013-03-12 07:00:00,
2013-03-12 03:02:00,35.2,27.7,29.98,WSW,256,2.0,6.0,74,0.00,,,0.00,Wunderground v.1.15,2013-03-12 07:02:00,
2013-03-12 03:04:00,35.2,27.7,29.98,West,268,2.0,6.0,74,0.00,,,0.00,Wunderground v.1.15,2013-03-12 07:04:00,
2013-03-12 03:06:00,35.2,27.7,29.98,West,270,2.0,13.0,74,0.00,,,0.00,Wunderground v.1.15,2013-03-12 07:06:00,
2013-03-12 03:08:00,35.2,27.7,29.98,WNW,295,3.0,13.0,74,0.00,,,0.00,Wunderground v.1.15,2013-03-12 07:08:00,
2013-03-12 03:10:00,35.2,27.7,29.98,WNW,285,4.0,8.0,74,0.00,,,0.00,Wunderground v.1.15,2013-03-12 07:10:00,
2013-03-12 03:12:00,35.2,27.7,29.98,West,271,4.0,8.0,74,0.00,,,0.00,Wunderground v.1.15,2013-03-12 07:12:00,
2013-03-12 03:17:00,35.2,27.7,29.98,WNW,292,4.0,11.0,74,0.00,,,0.00,Wunderground v.1.15,2013-03-12 07:17:00,
2013-03-12 03:18:00,35.2,27.4,29.98,West,278,5.0,11.0,73,0.00,,,0.00,Wunderground v.1.15,2013-03-12 07:18:00,
2013-03-12 03:20:00,35.1,27.3,29.98,WNW,285,5.0,5.0,73,0.00,,,0.00,Wunderground v.1.15,2013-03-12 07:20:00,
2013-03-12 03:21:00,35.1,27.3,29.98,WNW,289,5.0,5.0,73,0.00,,,0.00,Wunderground v.1.15,2013-03-12 07:21:00,
2013-03-12 03:26:00,35.1,27.3,29.98,West,275,5.0,14.0,73,0.00,,,0.00,Wunderground v.1.15,2013-03-12 07:26:00,
2013-03-12 03:27:00,35.1,27.0,29.98,WSW,257,5.0,14.0,72,0.00,,,0.00,Wunderground v.1.15,2013-03-12 07:27:00,
2013-03-12 03:28:00,35.1,27.0,29.98,WNW,285,5.0,14.0,72,0.00,,,0.00,Wunderground v.1.15,2013-03-12 07:28:00,
2013-03-12 03:31:00,35.1,27.0,29.97,West,277,6.0,15.0,72,0.00,,,0.00,Wunderground v.1.15,2013-03-12 07:31:00,
2013-03-12 03:33:00,35.1,27.0,29.97,West,281,7.0,15.0,72,0.00,,,0.00,Wunderground v.1.15,2013-03-12 07:33:00,
2013-03-12 03:34:00,35.1,27.0,29.97,West,272,7.0,15.0,72,0.00,,,0.00,Wunderground v.1.15,2013-03-12 07:34:00,
2013-03-12 03:38:00,34.9,26.4,29.97,WNW,282,7.0,15.0,71,0.00,,,0.00,Wunderground v.1.15,2013-03-12 07:38:00,
2013-03-12 03:39:00,34.9,26.4,29.97,West,263,7.0,15.0,71,0.00,,,0.00,Wunderground v.1.15,2013-03-12 07:39:00,
2013-03-12 03:40:00,34.9,26.4,29.97,West,277,7.0,18.0,71,0.00,,,0.00,Wunderground v.1.15,2013-03-12 07:40:00,
2013-03-12 03:42:00,34.9,26.4,29.97,West,272,8.0,18.0,71,0.00,,,0.00,Wunderground v.1.15,2013-03-12 07:42:00,
2013-03-12 03:46:00,34.9,26.4,29.97,SW,223,9.0,18.0,71,0.00,,,0.00,Wunderground v.1.15,2013-03-12 07:46:00,
2013-03-12 03:47:00,34.9,26.4,29.97,West,263,9.0,18.0,71,0.00,,,0.00,Wunderground v.1.15,2013-03-12 07:47:00,
2013-03-12 03:51:00,34.9,26.4,29.97,West,275,9.0,11.0,71,0.00,,,0.00,Wunderground v.1.15,2013-03-12 07:51:00,
2013-03-12 03:52:00,34.9,26.4,29.97,WSW,256,8.0,11.0,71,0.00,,,0.00,Wunderground v.1.15,2013-03-12 07:52:00,
2013-03-12 03:54:00,34.9,26.4,29.97,WNW,282,7.0,11.0,71,0.00,,,0.00,Wunderground v.1.15,2013-03-12 07:54:00,
2013-03-12 03:58:00,34.9,26.4,29.97,WNW,288,5.0,11.0,71,0.00,,,0.00,Wunderground v.1.15,2013-03-12 07:58:00,
2013-03-12 03:59:00,34.9,26.4,29.97,West,275,5.0,11.0,71,0.00,,,0.00,Wunderground v.1.15,2013-03-12 07:59:00,
2013-03-12 04:00:00,34.9,26.4,29.98,West,265,5.0,10.0,71,0.00,,,0.00,Wunderground v.1.15,2013-03-12 08:00:00,
2013-03-12 04:05:00,34.9,26.4,29.98,WNW,282,4.0,10.0,71,0.00,,,0.00,Wunderground v.1.15,2013-03-12 08:05:00,
2013-03-12 04:11:00,34.8,26.4,29.98,WNW,299,5.0,14.0,71,0.00,,,0.00,Wunderground v.1.15,2013-03-12 08:11:00,
2013-03-12 04:12:00,34.8,26.4,29.98,West,265,6.0,14.0,71,0.00,,,0.00,Wunderground v.1.15,2013-03-12 08:12:00,
2013-03-12 04:13:00,34.8,26.4,29.98,West,280,6.0,14.0,71,0.00,,,0.00,Wunderground v.1.15,2013-03-12 08:13:00,
2013-03-12 04:15:00,34.8,26.4,29.98,WNW,302,6.0,14.0,71,0.00,,,0.00,Wunderground v.1.15,2013-03-12 08:15:00,
2013-03-12 04:17:00,34.8,26.4,29.98,West,281,6.0,14.0,71,0.00,,,0.00,Wunderground v.1.15,2013-03-12 08:17:00,
2013-03-12 04:19:00,34.8,26.0,29.98,West,275,6.0,14.0,70,0.00,,,0.00,Wunderground v.1.15,2013-03-12 08:19:00,
2013-03-12 04:22:00,34.8,26.4,29.98,West,281,5.0,6.0,71,0.00,,,0.00,Wunderground v.1.15,2013-03-12 08:22:00,
2013-03-12 04:23:00,34.8,26.4,29.98,WNW,292,5.0,6.0,71,0.00,,,0.00,Wunderground v.1.15,2013-03-12 08:23:00,
2013-03-12 04:26:00,34.8,26.4,29.98,WNW,287,5.0,6.0,71,0.00,,,0.00,Wunderground v.1.15,2013-03-12 08:26:00,
2013-03-12 04:29:00,34.8,26.4,29.98,West,274,4.0,6.0,71,0.00,,,0.00,Wunderground v.1.15,2013-03-12 08:29:00,
2013-03-12 04:30:00,34.8,26.4,29.97,WNW,285,4.0,4.0,71,0.00,,,0.00,Wunderground v.1.15,2013-03-12 08:30:00,
2013-03-12 04:31:00,34.8,26.4,29.97,West,277,4.0,5.0,71,0.00,,,0.00,Wunderground v.1.15,2013-03-12 08:31:00,
2013-03-12 04:36:00,34.8,26.4,29.97,WNW,291,4.0,12.0,71,0.00,,,0.00,Wunderground v.1.15,2013-03-12 08:36:00,
2013-03-12 04:40:00,34.8,26.4,29.97,WNW,294,3.0,3.0,71,0.00,,,0.00,Wunderground v.1.15,2013-03-12 08:40:00,
2013-03-12 04:42:00,34.8,26.4,29.97,West,280,4.0,12.0,71,0.00,,,0.00,Wunderground v.1.15,2013-03-12 08:42:00,
2013-03-12 04:43:00,34.8,26.4,29.97,NW,325,4.0,12.0,71,0.00,,,0.00,Wunderground v.1.15,2013-03-12 08:43:00,
2013-03-12 04:45:00,34.8,26.0,29.98,WNW,287,4.0,12.0,70,0.00,,,0.00,Wunderground v.1.15,2013-03-12 08:45:00,
2013-03-12 04:48:00,34.9,26.4,29.98,WSW,240,5.0,12.0,71,0.00,,,0.00,Wunderground v.1.15,2013-03-12 08:48:00,
2013-03-12 04:49:00,34.9,26.4,29.98,West,265,5.0,12.0,71,0.00,,,0.00,Wunderground v.1.15,2013-03-12 08:49:00,
2013-03-12 04:51:00,34.9,26.1,29.98,WNW,292,5.0,5.0,70,0.00,,,0.00,Wunderground v.1.15,2013-03-12 08:51:00,
2013-03-12 04:54:00,34.9,26.1,29.98,WSW,247,4.0,5.0,70,0.00,,,0.00,Wunderground v.1.15,2013-03-12 08:54:00,
2013-03-12 04:55:00,34.9,26.4,29.98,West,263,4.0,5.0,71,0.00,,,0.00,Wunderground v.1.15,2013-03-12 08:55:00,
2013-03-12 04:57:00,34.9,26.4,29.98,West,281,3.0,6.0,71,0.00,,,0.00,Wunderground v.1.15,2013-03-12 08:57:00,
2013-03-12 04:58:00,34.9,26.4,29.98,West,264,3.0,6.0,71,0.00,,,0.00,Wunderground v.1.15,2013-03-12 08:58:00,
2013-03-12 05:00:00,34.9,26.4,29.98,WNW,302,4.0,6.0,71,0.00,,,0.00,Wunderground v.1.15,2013-03-12 09:00:00,
2013-03-12 05:03:00,34.8,26.0,29.98,WNW,292,5.0,7.0,70,0.00,,,0.00,Wunderground v.1.15,2013-03-12 09:03:00,
2013-03-12 05:08:00,34.9,26.4,29.98,WNW,302,5.0,8.0,71,0.00,,,0.00,Wunderground v.1.15,2013-03-12 09:08:00,
2013-03-12 05:10:00,34.8,26.4,29.98,WNW,294,4.0,4.0,71,0.00,,,0.00,Wunderground v.1.15,2013-03-12 09:10:00,
2013-03-12 05:14:00,34.8,26.4,29.98,WNW,287,4.0,6.0,71,0.00,,,0.00,Wunderground v.1.15,2013-03-12 09:14:00,
2013-03-12 05:16:00,34.8,26.4,29.98,WSW,257,4.0,6.0,71,0.00,,,0.00,Wunderground v.1.15,2013-03-12 09:16:00,
2013-03-12 05:20:00,34.8,26.4,29.98,West,263,4.0,4.0,71,0.00,,,0.00,Wunderground v.1.15,2013-03-12 09:20:00,
2013-03-12 05:22:00,34.8,26.4,29.98,West,277,4.0,5.0,71,0.00,,,0.00,Wunderground v.1.15,2013-03-12 09:22:00,
2013-03-12 05:23:00,34.8,26.4,29.98,WNW,292,4.0,5.0,71,0.00,,,0.00,Wunderground v.1.15,2013-03-12 09:23:00,
2013-03-12 05:24:00,34.8,26.4,29.98,WNW,299,4.0,5.0,71,0.00,,,0.00,Wunderground v.1.15,2013-03-12 09:24:00,
2013-03-12 05:28:00,34.8,26.4,29.98,WNW,287,5.0,8.0,71,0.00,,,0.00,Wunderground v.1.15,2013-03-12 09:28:00,
2013-03-12 05:30:00,34.8,26.4,29.98,WNW,285,5.0,5.0,71,0.00,,,0.00,Wunderground v.1.15,2013-03-12 09:30:00,
2013-03-12 05:31:00,34.8,26.4,29.98,WNW,284,4.0,5.0,71,0.00,,,0.00,Wunderground v.1.15,2013-03-12 09:31:00,
2013-03-12 05:36:00,34.8,26.0,29.98,West,270,4.0,8.0,70,0.00,,,0.00,Wunderground v.1.15,2013-03-12 09:36:00,
2013-03-12 05:38:00,34.8,26.0,29.98,SW,234,4.0,8.0,70,0.00,,,0.00,Wunderground v.1.15,2013-03-12 09:38:00,
2013-03-12 05:40:00,34.8,26.0,29.98,NW,316,4.0,15.0,70,0.00,,,0.00,Wunderground v.1.15,2013-03-12 09:40:00,
2013-03-12 05:43:00,34.8,26.0,29.98,West,277,5.0,15.0,70,0.00,,,0.00,Wunderground v.1.15,2013-03-12 09:43:00,
2013-03-12 05:44:00,34.8,26.0,29.98,WNW,298,5.0,15.0,70,0.00,,,0.00,Wunderground v.1.15,2013-03-12 09:44:00,
2013-03-12 05:45:00,34.8,26.0,29.99,NW,308,5.0,15.0,70,0.00,,,0.00,Wunderground v.1.15,2013-03-12 09:45:00,
2013-03-12 05:50:00,34.8,26.0,29.99,West,268,5.0,5.0,70,0.00,,,0.00,Wunderground v.1.15,2013-03-12 09:50:00,
2013-03-12 05:51:00,34.8,26.0,29.99,WNW,289,5.0,6.0,70,0.00,,,0.00,Wunderground v.1.15,2013-03-12 09:51:00,
2013-03-12 05:54:00,34.8,26.0,29.99,WNW,296,5.0,6.0,70,0.00,,,0.00,Wunderground v.1.15,2013-03-12 09:54:00,
2013-03-12 05:55:00,34.8,26.0,29.99,West,272,5.0,6.0,70,0.00,,,0.00,Wunderground v.1.15,2013-03-12 09:55:00,
2013-03-12 05:59:00,34.8,26.0,29.99,WSW,251,5.0,10.0,70,0.00,,,0.00,Wunderground v.1.15,2013-03-12 09:59:00,
2013-03-12 06:00:00,34.8,26.0,29.99,West,264,5.0,5.0,70,0.00,,,0.00,Wunderground v.1.15,2013-03-12 10:00:00,
2013-03-12 06:02:00,34.8,26.0,29.99,West,275,5.0,6.0,70,0.00,,,0.00,Wunderground v.1.15,2013-03-12 10:02:00,
2013-03-12 06:03:00,34.8,26.0,29.99,WNW,282,5.0,6.0,70,0.00,,,0.00,Wunderground v.1.15,2013-03-12 10:03:00,
2013-03-12 06:07:00,34.8,26.4,29.99,NW,305,4.0,10.0,71,0.00,,,0.00,Wunderground v.1.15,2013-03-12 10:07:00,
2013-03-12 06:08:00,34.8,26.4,29.99,NW,305,4.0,10.0,71,0.00,,,0.00,Wunderground v.1.15,2013-03-12 10:08:00,
2013-03-12 06:12:00,34.8,26.4,29.99,WNW,285,2.0,3.0,71,0.00,,,0.00,Wunderground v.1.15,2013-03-12 10:12:00,
2013-03-12 06:14:00,34.8,26.4,29.99,West,281,2.0,3.0,71,0.00,,,0.00,Wunderground v.1.15,2013-03-12 10:14:00,
2013-03-12 06:15:00,34.8,26.4,29.99,West,268,2.0,7.0,71,0.00,,,0.00,Wunderground v.1.15,2013-03-12 10:15:00,
2013-03-12 06:16:00,34.8,26.4,29.99,West,271,2.0,7.0,71,0.00,,,0.00,Wunderground v.1.15,2013-03-12 10:16:00,
2013-03-12 06:20:00,34.8,26.4,29.99,NW,304,3.0,3.0,71,0.00,,,0.00,Wunderground v.1.15,2013-03-12 10:20:00,
2013-03-12 06:21:00,34.8,26.4,29.99,NW,304,3.0,3.0,71,0.00,,,0.00,Wunderground v.1.15,2013-03-12 10:21:00,
2013-03-12 06:23:00,34.8,26.4,29.99,SW,226,3.0,6.0,71,0.00,,,0.00,Wunderground v.1.15,2013-03-12 10:23:00,
2013-03-12 06:26:00,34.8,26.4,29.99,WNW,291,3.0,6.0,71,0.00,,,0.00,Wunderground v.1.15,2013-03-12 10:26:00,
2013-03-12 06:27:00,34.8,26.4,29.99,West,272,3.0,6.0,71,0.00,,,0.00,Wunderground v.1.15,2013-03-12 10:27:00,
2013-03-12 06:29:00,34.8,26.4,29.99,WNW,288,3.0,6.0,71,0.00,,,0.00,Wunderground v.1.15,2013-03-12 10:29:00,
2013-03-12 06:31:00,34.8,26.4,30.00,WSW,256,2.0,3.0,71,0.00,,,0.00,Wunderground v.1.15,2013-03-12 10:31:00,
2013-03-12 06:32:00,34.8,26.4,30.00,West,264,3.0,5.0,71,0.00,,,0.00,Wunderground v.1.15,2013-03-12 10:32:00,
2013-03-12 06:36:00,34.8,26.4,30.00,West,274,2.0,8.0,71,0.00,,,0.00,Wunderground v.1.15,2013-03-12 10:36:00,
2013-03-12 06:37:00,34.8,26.4,30.00,West,274,2.0,8.0,71,0.00,,,0.00,Wunderground v.1.15,2013-03-12 10:37:00,
2013-03-12 06:39:00,34.8,26.4,30.00,West,274,2.0,8.0,71,0.00,,,0.00,Wunderground v.1.15,2013-03-12 10:39:00,
2013-03-12 06:41:00,34.8,26.4,30.00,WNW,284,2.0,2.0,71,0.00,,,0.00,Wunderground v.1.15,2013-03-12 10:41:00,
2013-03-12 06:44:00,34.8,26.4,30.00,WNW,284,1.0,2.0,71,0.00,,,0.00,Wunderground v.1.15,2013-03-12 10:44:00,
2013-03-12 06:45:00,34.8,26.7,30.00,WNW,285,1.0,2.0,72,0.00,,,0.00,Wunderground v.1.15,2013-03-12 10:45:00,
2013-03-12 06:47:00,34.8,26.7,30.00,WNW,285,0.0,3.0,72,0.00,,,0.00,Wunderground v.1.15,2013-03-12 10:47:00,
2013-03-12 06:49:00,34.8,26.7,30.00,WNW,282,0.0,3.0,72,0.00,,,0.00,Wunderground v.1.15,2013-03-12 10:49:00,
2013-03-12 06:50:00,34.6,26.5,30.00,West,281,0.0,2.0,72,0.00,,,0.00,Wunderground v.1.15,2013-03-12 10:50:00,
2013-03-12 06:55:00,34.6,26.5,30.00,WSW,253,0.0,3.0,72,0.00,,,0.00,Wunderground v.1.15,2013-03-12 10:55:00,
2013-03-12 06:56:00,34.6,26.2,30.00,WNW,287,1.0,3.0,71,0.00,,,0.00,Wunderground v.1.15,2013-03-12 10:56:00,
2013-03-12 07:00:00,34.6,26.2,30.00,West,263,2.0,2.0,71,0.00,,,0.00,Wunderground v.1.15,2013-03-12 11:00:00,
2013-03-12 07:03:00,34.6,26.2,30.00,WNW,285,2.0,5.0,71,0.00,,,0.00,Wunderground v.1.15,2013-03-12 11:03:00,
2013-03-12 07:05:00,34.6,26.2,30.00,WSW,253,3.0,5.0,71,0.00,,,0.00,Wunderground v.1.15,2013-03-12 11:05:00,
2013-03-12 07:07:00,34.6,26.2,30.00,West,281,2.0,5.0,71,0.00,,,0.00,Wunderground v.1.15,2013-03-12 11:07:00,
2013-03-12 07:08:00,34.6,25.8,30.00,West,274,2.0,5.0,70,0.00,,,0.00,Wunderground v.1.15,2013-03-12 11:08:00,
2013-03-12 07:10:00,34.6,25.8,30.00,WSW,257,3.0,3.0,70,0.00,,,0.00,Wunderground v.1.15,2013-03-12 11:10:00,
2013-03-12 07:12:00,34.6,25.5,30.00,West,268,3.0,7.0,69,0.00,,,0.00,Wunderground v.1.15,2013-03-12 11:12:00,
2013-03-12 07:15:00,34.6,25.5,30.01,West,268,4.0,10.0,69,0.00,,,0.00,Wunderground v.1.15,2013-03-12 11:15:00,
2013-03-12 07:17:00,34.6,25.5,30.01,West,275,5.0,10.0,69,0.00,,,0.00,Wunderground v.1.15,2013-03-12 11:17:00,
2013-03-12 07:18:00,34.6,25.5,30.01,West,274,5.0,10.0,69,0.00,,,0.00,Wunderground v.1.15,2013-03-12 11:18:00,
2013-03-12 07:19:00,34.6,25.1,30.01,West,272,6.0,10.0,68,0.00,,,0.00,Wunderground v.1.15,2013-03-12 11:19:00,
2013-03-12 07:20:00,34.6,25.5,30.01,WSW,247,6.0,6.0,69,0.00,,,0.00,Wunderground v.1.15,2013-03-12 11:20:00,
2013-03-12 07:24:00,34.6,25.1,30.01,WSW,253,6.0,7.0,68,0.00,,,0.00,Wunderground v.1.15,2013-03-12 11:24:00,
2013-03-12 07:25:00,34.6,25.1,30.01,West,264,6.0,7.0,68,0.00,,,0.00,Wunderground v.1.15,2013-03-12 11:25:00,
2013-03-12 07:27:00,34.6,25.1,30.01,WNW,295,5.0,7.0,68,0.00,,,0.00,Wunderground v.1.15,2013-03-12 11:27:00,
2013-03-12 07:31:00,34.5,25.0,30.01,West,264,4.0,7.0,68,0.00,,,0.00,Wunderground v.1.15,2013-03-12 11:31:00,
2013-03-12 07:32:00,34.5,25.0,30.01,West,260,4.0,7.0,68,0.00,,,0.00,Wunderground v.1.15,2013-03-12 11:32:00,
2013-03-12 07:34:00,34.5,24.7,30.01,West,261,4.0,7.0,67,0.00,,,0.00,Wunderground v.1.15,2013-03-12 11:34:00,
2013-03-12 07:35:00,34.5,24.7,30.01,West,280,4.0,7.0,67,0.00,,,0.00,Wunderground v.1.15,2013-03-12 11:35:00,
2013-03-12 07:38:00,34.5,24.7,30.01,West,261,4.0,11.0,67,0.00,,,0.00,Wunderground v.1.15,2013-03-12 11:38:00,
2013-03-12 07:39:00,34.5,24.7,30.01,WNW,289,5.0,11.0,67,0.00,,,0.00,Wunderground v.1.15,2013-03-12 11:39:00,
2013-03-12 07:42:00,34.5,24.7,30.01,WNW,292,6.0,7.0,67,0.00,,,0.00,Wunderground v.1.15,2013-03-12 11:42:00,
2013-03-12 07:45:00,34.5,24.3,30.01,WNW,299,6.0,12.0,66,0.00,,,0.00,Wunderground v.1.15,2013-03-12 11:45:00,
2013-03-12 07:46:00,34.5,24.7,30.01,WNW,291,5.0,12.0,67,0.00,,,0.00,Wunderground v.1.15,2013-03-12 11:46:00,
2013-03-12 07:49:00,34.3,24.5,30.01,NNW,346,5.0,12.0,67,0.00,,,0.00,Wunderground v.1.15,2013-03-12 11:49:00,
2013-03-12 07:50:00,34.3,24.1,30.01,West,268,4.0,5.0,66,0.00,,,0.00,Wunderground v.1.15,2013-03-12 11:50:00,
2013-03-12 07:53:00,34.3,23.7,30.01,West,278,5.0,6.0,65,0.00,,,0.00,Wunderground v.1.15,2013-03-12 11:53:00,
2013-03-12 07:54:00,34.3,23.7,30.01,WNW,292,5.0,6.0,65,0.00,,,0.00,Wunderground v.1.15,2013-03-12 11:54:00,
2013-03-12 07:56:00,34.3,23.7,30.01,WNW,294,6.0,6.0,65,0.00,,,0.00,Wunderground v.1.15,2013-03-12 11:56:00,
2013-03-12 07:57:00,34.3,23.7,30.01,West,275,6.0,9.0,65,0.00,,,0.00,Wunderground v.1.15,2013-03-12 11:57:00,
2013-03-12 08:02:00,34.3,23.7,30.03,NW,311,7.0,14.0,65,0.00,,,0.00,Wunderground v.1.15,2013-03-12 12:02:00,
2013-03-12 08:03:00,34.3,23.7,30.03,West,271,6.0,14.0,65,0.00,,,0.00,Wunderground v.1.15,2013-03-12 12:03:00,
2013-03-12 08:05:00,34.3,24.1,30.03,West,281,6.0,14.0,66,0.00,,,0.00,Wunderground v.1.15,2013-03-12 12:05:00,
2013-03-12 08:08:00,34.3,24.1,30.03,West,260,5.0,14.0,66,0.00,,,0.00,Wunderground v.1.15,2013-03-12 12:08:00,
2013-03-12 08:09:00,34.3,24.1,30.03,West,271,5.0,14.0,66,0.00,,,0.00,Wunderground v.1.15,2013-03-12 12:09:00,
2013-03-12 08:11:00,34.3,24.1,30.03,West,267,4.0,5.0,66,0.00,,,0.00,Wunderground v.1.15,2013-03-12 12:11:00,
2013-03-12 08:13:00,34.3,24.1,30.03,WSW,257,4.0,6.0,66,0.00,,,0.00,Wunderground v.1.15,2013-03-12 12:13:00,
2013-03-12 08:16:00,34.3,23.7,30.03,WNW,301,4.0,12.0,65,0.00,,,0.00,Wunderground v.1.15,2013-03-12 12:16:00,
2013-03-12 08:17:00,34.3,23.7,30.03,WNW,291,4.0,12.0,65,0.00,,,0.00,Wunderground v.1.15,2013-03-12 12:17:00,
2013-03-12 08:21:00,34.3,23.7,30.03,SW,227,4.0,7.0,65,0.00,,,0.00,Wunderground v.1.15,2013-03-12 12:21:00,
2013-03-12 08:23:00,34.3,23.7,30.03,NNW,335,4.0,7.0,65,0.00,,,0.00,Wunderground v.1.15,2013-03-12 12:23:00,
2013-03-12 08:24:00,34.3,23.4,30.03,West,275,4.0,7.0,64,0.00,,,0.00,Wunderground v.1.15,2013-03-12 12:24:00,
2013-03-12 08:27:00,34.3,23.4,30.03,WSW,251,4.0,7.0,64,0.00,,,0.00,Wunderground v.1.15,2013-03-12 12:27:00,
2013-03-12 08:29:00,34.3,23.4,30.03,WSW,258,4.0,7.0,64,0.00,,,0.00,Wunderground v.1.15,2013-03-12 12:29:00,
2013-03-12 08:31:00,34.2,23.3,30.03,West,268,4.0,8.0,64,0.00,,,0.00,Wunderground v.1.15,2013-03-12 12:31:00,
2013-03-12 08:32:00,34.2,23.3,30.03,West,271,4.0,8.0,64,0.00,,,0.00,Wunderground v.1.15,2013-03-12 12:32:00,
2013-03-12 08:33:00,34.2,23.3,30.03,West,270,5.0,8.0,64,0.00,,,0.00,Wunderground v.1.15,2013-03-12 12:33:00,
2013-03-12 08:36:00,34.2,23.3,30.03,West,264,4.0,8.0,64,0.00,,,0.00,Wunderground v.1.15,2013-03-12 12:36:00,
2013-03-12 08:37:00,34.2,23.3,30.03,West,271,4.0,8.0,64,0.00,,,0.00,Wunderground v.1.15,2013-03-12 12:37:00,
2013-03-12 08:40:00,34.2,23.3,30.03,West,271,4.0,4.0,64,0.00,,,0.00,Wunderground v.1.15,2013-03-12 12:40:00,
2013-03-12 08:41:00,34.2,23.3,30.03,West,281,3.0,7.0,64,0.00,,,0.00,Wunderground v.1.15,2013-03-12 12:41:00,
2013-03-12 08:44:00,34.2,23.3,30.03,West,275,3.0,7.0,64,0.00,,,0.00,Wunderground v.1.15,2013-03-12 12:44:00,
2013-03-12 08:45:00,34.2,23.3,30.03,WNW,291,3.0,7.0,64,0.00,,,0.00,Wunderground v.1.15,2013-03-12 12:45:00,
2013-03-12 08:47:00,34.2,23.3,30.03,NW,306,2.0,7.0,64,0.00,,,0.00,Wunderground v.1.15,2013-03-12 12:47:00,
2013-03-12 08:51:00,34.2,23.3,30.03,WNW,285,3.0,5.0,64,0.00,,,0.00,Wunderground v.1.15,2013-03-12 12:51:00,
2013-03-12 08:53:00,34.2,23.3,30.03,West,280,3.0,5.0,64,0.00,,,0.00,Wunderground v.1.15,2013-03-12 12:53:00,
2013-03-12 08:55:00,34.3,23.4,30.03,WNW,285,3.0,5.0,64,0.00,,,0.00,Wunderground v.1.15,2013-03-12 12:55:00,
2013-03-12 08:56:00,34.3,23.4,30.03,West,281,3.0,5.0,64,0.00,,,0.00,Wunderground v.1.15,2013-03-12 12:56:00,
2013-03-12 08:58:00,34.3,23.4,30.03,WNW,298,3.0,8.0,64,0.00,,,0.00,Wunderground v.1.15,2013-03-12 12:58:00,
2013-03-12 09:00:00,34.3,23.4,30.03,WSW,246,3.0,3.0,64,0.00,,,0.00,Wunderground v.1.15,2013-03-12 13:00:00,
2013-03-12 09:03:00,34.3,23.4,30.03,WNW,299,3.0,5.0,64,0.00,,,0.00,Wunderground v.1.15,2013-03-12 13:03:00,
2013-03-12 09:04:00,34.3,23.4,30.03,WSW,251,4.0,5.0,64,0.00,,,0.00,Wunderground v.1.15,2013-03-12 13:04:00,
2013-03-12 09:08:00,34.5,23.6,30.03,WSW,253,4.0,5.0,64,0.00,,,0.00,Wunderground v.1.15,2013-03-12 13:08:00,
2013-03-12 09:09:00,34.5,23.6,30.03,West,281,3.0,5.0,64,0.00,,,0.00,Wunderground v.1.15,2013-03-12 13:09:00,
2013-03-12 09:11:00,34.5,23.6,30.03,WNW,292,3.0,5.0,64,0.00,,,0.00,Wunderground v.1.15,2013-03-12 13:11:00,
2013-03-12 09:14:00,34.5,23.6,30.03,West,278,4.0,7.0,64,0.00,,,0.00,Wunderground v.1.15,2013-03-12 13:14:00,
2013-03-12 09:15:00,34.5,23.6,30.05,West,280,4.0,7.0,64,0.00,,,0.00,Wunderground v.1.15,2013-03-12 13:15:00,
2013-03-12 09:17:00,34.6,23.7,30.05,WSW,240,5.0,7.0,64,0.00,,,0.00,Wunderground v.1.15,2013-03-12 13:17:00,
2013-03-12 09:22:00,34.6,23.7,30.05,West,261,4.0,4.0,64,0.00,,,0.00,Wunderground v.1.15,2013-03-12 13:22:00,
2013-03-12 09:23:00,34.6,23.7,30.05,West,265,4.0,4.0,64,0.00,,,0.00,Wunderground v.1.15,2013-03-12 13:23:00,
2013-03-12 09:24:00,34.6,23.7,30.05,West,270,4.0,4.0,64,0.00,,,0.00,Wunderground v.1.15,2013-03-12 13:24:00,
2013-03-12 09:26:00,34.6,23.7,30.05,SW,219,4.0,7.0,64,0.00,,,0.00,Wunderground v.1.15,2013-03-12 13:26:00,
2013-03-12 09:29:00,34.6,23.7,30.05,WNW,284,4.0,12.0,64,0.00,,,0.00,Wunderground v.1.15,2013-03-12 13:29:00,
2013-03-12 09:30:00,34.8,23.9,30.05,WNW,284,4.0,4.0,64,0.00,,,0.00,Wunderground v.1.15,2013-03-12 13:30:00,
2013-03-12 09:31:00,34.8,23.9,30.05,WNW,284,4.0,4.0,64,0.00,,,0.00,Wunderground v.1.15,2013-03-12 13:31:00,
2013-03-12 09:35:00,34.8,23.9,30.05,West,281,5.0,11.0,64,0.00,,,0.00,Wunderground v.1.15,2013-03-12 13:35:00,
2013-03-12 09:36:00,34.8,23.9,30.05,West,264,4.0,11.0,64,0.00,,,0.00,Wunderground v.1.15,2013-03-12 13:36:00,
2013-03-12 09:37:00,34.8,23.9,30.05,West,272,4.0,11.0,64,0.00,,,0.00,Wunderground v.1.15,2013-03-12 13:37:00,
2013-03-12 09:39:00,34.8,23.9,30.05,West,265,4.0,11.0,64,0.00,,,0.00,Wunderground v.1.15,2013-03-12 13:39:00,
2013-03-12 09:42:00,34.8,23.5,30.05,WNW,301,5.0,12.0,63,0.00,,,0.00,Wunderground v.1.15,2013-03-12 13:42:00,
2013-03-12 09:43:00,34.9,23.6,30.05,WNW,284,5.0,12.0,63,0.00,,,0.00,Wunderground v.1.15,2013-03-12 13:43:00,
2013-03-12 09:45:00,34.9,23.9,30.04,WSW,244,4.0,12.0,64,0.00,,,0.00,Wunderground v.1.15,2013-03-12 13:45:00,
2013-03-12 09:48:00,35.1,23.8,30.04,WSW,256,5.0,12.0,63,0.00,,,0.00,Wunderground v.1.15,2013-03-12 13:48:00,
2013-03-12 09:49:00,35.1,23.8,30.04,West,267,5.0,12.0,63,0.00,,,0.00,Wunderground v.1.15,2013-03-12 13:49:00,
2013-03-12 09:53:00,35.2,23.9,30.04,West,281,4.0,12.0,63,0.00,,,0.00,Wunderground v.1.15,2013-03-12 13:53:00,
2013-03-12 09:59:00,35.2,23.5,30.04,WNW,289,5.0,12.0,62,0.00,,,0.00,Wunderground v.1.15,2013-03-12 13:59:00,
2013-03-12 10:00:00,35.2,23.5,30.05,West,280,5.0,5.0,62,0.00,,,0.00,Wunderground v.1.15,2013-03-12 14:00:00,
2013-03-12 10:02:00,35.4,23.7,30.05,West,277,5.0,5.0,62,0.00,,,0.00,Wunderground v.1.15,2013-03-12 14:02:00,
2013-03-12 10:05:00,35.5,23.8,30.05,WSW,248,5.0,5.0,62,0.00,,,0.00,Wunderground v.1.15,2013-03-12 14:05:00,
2013-03-12 10:07:00,35.8,24.4,30.05,NW,318,4.0,8.0,63,0.00,,,0.00,Wunderground v.1.15,2013-03-12 14:07:00,
2013-03-12 10:10:00,35.8,23.7,30.05,NNW,340,3.0,12.0,61,0.00,,,0.00,Wunderground v.1.15,2013-03-12 14:10:00,
2013-03-12 10:11:00,35.8,23.3,30.05,WNW,288,4.0,12.0,60,0.00,,,0.00,Wunderground v.1.15,2013-03-12 14:11:00,
2013-03-12 10:12:00,35.7,23.2,30.05,WNW,289,5.0,12.0,60,0.00,,,0.00,Wunderground v.1.15,2013-03-12 14:12:00,
2013-03-12 10:13:00,35.7,23.6,30.05,West,267,5.0,12.0,61,0.00,,,0.00,Wunderground v.1.15,2013-03-12 14:13:00,
2013-03-12 10:16:00,35.8,23.7,30.05,West,278,5.0,12.0,61,0.00,,,0.00,Wunderground v.1.15,2013-03-12 14:16:00,
2013-03-12 10:18:00,36.0,24.2,30.05,West,260,5.0,12.0,62,0.00,,,0.00,Wunderground v.1.15,2013-03-12 14:18:00,
2013-03-12 10:21:00,36.3,24.5,30.05,WNW,287,4.0,8.0,62,0.00,,,0.00,Wunderground v.1.15,2013-03-12 14:21:00,
2013-03-12 10:22:00,36.3,24.1,30.05,West,280,4.0,8.0,61,0.00,,,0.00,Wunderground v.1.15,2013-03-12 14:22:00,
2013-03-12 10:26:00,36.3,23.7,30.05,WNW,285,5.0,10.0,60,0.00,,,0.00,Wunderground v.1.15,2013-03-12 14:26:00,
2013-03-12 10:27:00,36.1,23.5,30.05,West,274,5.0,10.0,60,0.00,,,0.00,Wunderground v.1.15,2013-03-12 14:27:00,
2013-03-12 10:29:00,36.1,23.5,30.05,WSW,256,6.0,10.0,60,0.00,,,0.00,Wunderground v.1.15,2013-03-12 14:29:00,
2013-03-12 10:31:00,36.0,23.8,30.05,West,267,7.0,7.0,61,0.00,,,0.00,Wunderground v.1.15,2013-03-12 14:31:00,
2013-03-12 10:33:00,36.1,23.9,30.05,WNW,288,7.0,7.0,61,0.00,,,0.00,Wunderground v.1.15,2013-03-12 14:33:00,
2013-03-12 10:34:00,36.3,23.7,30.05,NW,323,7.0,7.0,60,0.00,,,0.00,Wunderground v.1.15,2013-03-12 14:34:00,
2013-03-12 10:39:00,36.3,23.7,30.05,West,260,6.0,7.0,60,0.00,,,0.00,Wunderground v.1.15,2013-03-12 14:39:00,
2013-03-12 10:40:00,36.3,23.7,30.05,WNW,282,6.0,6.0,60,0.00,,,0.00,Wunderground v.1.15,2013-03-12 14:40:00,
2013-03-12 10:42:00,36.4,24.2,30.05,WSW,251,6.0,6.0,61,0.00,,,0.00,Wunderground v.1.15,2013-03-12 14:42:00,
2013-03-12 10:43:00,36.4,24.2,30.05,West,277,6.0,6.0,61,0.00,,,0.00,Wunderground v.1.15,2013-03-12 14:43:00,
2013-03-12 10:45:00,36.7,24.1,30.06,WNW,288,5.0,6.0,60,0.00,,,0.00,Wunderground v.1.15,2013-03-12 14:45:00,
2013-03-12 10:48:00,36.8,24.2,30.06,NW,311,5.0,7.0,60,0.00,,,0.00,Wunderground v.1.15,2013-03-12 14:48:00,
2013-03-12 10:50:00,36.8,23.8,30.06,West,264,5.0,12.0,59,0.00,,,0.00,Wunderground v.1.15,2013-03-12 14:50:00,
2013-03-12 10:51:00,36.8,23.8,30.06,WSW,248,6.0,12.0,59,0.00,,,0.00,Wunderground v.1.15,2013-03-12 14:51:00,
2013-03-12 10:52:00,36.8,23.8,30.06,West,272,6.0,12.0,59,0.00,,,0.00,Wunderground v.1.15,2013-03-12 14:52:00,
2013-03-12 10:58:00,37.0,24.4,30.06,West,271,7.0,12.0,60,0.00,,,0.00,Wunderground v.1.15,2013-03-12 14:58:00,
2013-03-12 11:00:00,37.1,24.5,30.07,West,264,7.0,7.0,60,0.00,,,0.00,Wunderground v.1.15,2013-03-12 15:00:00,
2013-03-12 11:01:00,37.3,24.3,30.07,West,277,7.0,8.0,59,0.00,,,0.00,Wunderground v.1.15,2013-03-12 15:01:00,
2013-03-12 11:05:00,37.5,24.1,30.07,WNW,288,6.0,10.0,58,0.00,,,0.00,Wunderground v.1.15,2013-03-12 15:05:00,
2013-03-12 11:06:00,37.5,24.1,30.07,WNW,289,6.0,10.0,58,0.00,,,0.00,Wunderground v.1.15,2013-03-12 15:06:00,
2013-03-12 11:07:00,37.5,23.6,30.07,West,275,7.0,10.0,57,0.00,,,0.00,Wunderground v.1.15,2013-03-12 15:07:00,
2013-03-12 11:08:00,37.7,24.2,30.07,West,271,6.0,10.0,58,0.00,,,0.00,Wunderground v.1.15,2013-03-12 15:08:00,
2013-03-12 11:12:00,37.8,24.3,30.07,West,271,6.0,12.0,58,0.00,,,0.00,Wunderground v.1.15,2013-03-12 15:12:00,
2013-03-12 11:13:00,37.8,24.3,30.07,NW,315,7.0,12.0,58,0.00,,,0.00,Wunderground v.1.15,2013-03-12 15:13:00,
2013-03-12 11:15:00,38.0,24.9,30.07,WSW,247,6.0,12.0,59,0.00,,,0.00,Wunderground v.1.15,2013-03-12 15:15:00,
2013-03-12 11:19:00,38.3,24.4,30.07,WNW,301,6.0,12.0,57,0.00,,,0.00,Wunderground v.1.15,2013-03-12 15:19:00,
2013-03-12 11:22:00,38.3,24.4,30.07,WNW,285,6.0,13.0,57,0.00,,,0.00,Wunderground v.1.15,2013-03-12 15:22:00,
2013-03-12 11:23:00,38.3,24.4,30.07,North,350,6.0,13.0,57,0.00,,,0.00,Wunderground v.1.15,2013-03-12 15:23:00,
2013-03-12 11:25:00,38.4,24.9,30.07,West,274,6.0,13.0,58,0.00,,,0.00,Wunderground v.1.15,2013-03-12 15:25:00,
2013-03-12 11:29:00,38.5,25.0,30.07,West,275,6.0,13.0,58,0.00,,,0.00,Wunderground v.1.15,2013-03-12 15:29:00,
2013-03-12 11:30:00,38.5,24.6,30.08,WNW,287,6.0,7.0,57,0.00,,,0.00,Wunderground v.1.15,2013-03-12 15:30:00,
2013-03-12 11:31:00,38.4,24.5,30.08,West,271,5.0,8.0,57,0.00,,,0.00,Wunderground v.1.15,2013-03-12 15:31:00,
2013-03-12 11:34:00,38.1,24.6,30.08,West,277,6.0,10.0,58,0.00,,,0.00,Wunderground v.1.15,2013-03-12 15:34:00,
2013-03-12 11:35:00,38.0,24.5,30.08,West,270,6.0,10.0,58,0.00,,,0.00,Wunderground v.1.15,2013-03-12 15:35:00,
2013-03-12 11:38:00,37.8,24.7,30.08,WNW,284,6.0,10.0,59,0.00,,,0.00,Wunderground v.1.15,2013-03-12 15:38:00,
2013-03-12 11:41:00,37.8,24.3,30.08,NW,305,7.0,7.0,58,0.00,,,0.00,Wunderground v.1.15,2013-03-12 15:41:00,
2013-03-12 11:43:00,37.8,24.7,30.08,WSW,257,6.0,9.0,59,0.00,,,0.00,Wunderground v.1.15,2013-03-12 15:43:00,
2013-03-12 11:47:00,38.1,24.6,30.08,West,263,7.0,12.0,58,0.00,,,0.00,Wunderground v.1.15,2013-03-12 15:47:00,
2013-03-12 11:49:00,38.1,24.6,30.08,WSW,254,7.0,12.0,58,0.00,,,0.00,Wunderground v.1.15,2013-03-12 15:49:00,
2013-03-12 11:51:00,38.5,25.0,30.08,WNW,284,7.0,10.0,58,0.00,,,0.00,Wunderground v.1.15,2013-03-12 15:51:00,
2013-03-12 11:55:00,38.7,25.6,30.08,WSW,257,7.0,10.0,59,0.00,,,0.00,Wunderground v.1.15,2013-03-12 15:55:00,
2013-03-12 11:57:00,38.8,24.9,30.08,West,278,6.0,12.0,57,0.00,,,0.00,Wunderground v.1.15,2013-03-12 15:57:00,
2013-03-12 11:58:00,38.8,24.4,30.08,West,261,7.0,12.0,56,0.00,,,0.00,Wunderground v.1.15,2013-03-12 15:58:00,
2013-03-12 12:01:00,39.0,25.5,30.07,West,261,8.0,12.0,58,0.00,,,0.00,Wunderground v.1.15,2013-03-12 16:01:00,
2013-03-12 12:02:00,39.0,25.0,30.07,SW,224,8.0,16.0,57,0.00,,,0.00,Wunderground v.1.15,2013-03-12 16:02:00,
2013-03-12 12:03:00,39.1,25.1,30.07,WNW,285,8.0,16.0,57,0.00,,,0.00,Wunderground v.1.15,2013-03-12 16:03:00,
2013-03-12 12:04:00,39.3,25.7,30.07,West,265,7.0,16.0,58,0.00,,,0.00,Wunderground v.1.15,2013-03-12 16:04:00,
2013-03-12 12:08:00,39.3,25.3,30.07,NW,326,8.0,16.0,57,0.00,,,0.00,Wunderground v.1.15,2013-03-12 16:08:00,
2013-03-12 12:10:00,39.4,25.4,30.07,West,278,7.0,7.0,57,0.00,,,0.00,Wunderground v.1.15,2013-03-12 16:10:00,
2013-03-12 12:11:00,39.6,25.6,30.07,West,261,7.0,14.0,57,0.00,,,0.00,Wunderground v.1.15,2013-03-12 16:11:00,
2013-03-12 12:14:00,39.4,25.0,30.07,NW,320,7.0,14.0,56,0.00,,,0.00,Wunderground v.1.15,2013-03-12 16:14:00,
2013-03-12 12:16:00,39.4,25.0,30.07,SW,224,7.0,16.0,56,0.00,,,0.00,Wunderground v.1.15,2013-03-12 16:16:00,
2013-03-12 12:17:00,39.4,25.0,30.07,SW,227,7.0,16.0,56,0.00,,,0.00,Wunderground v.1.15,2013-03-12 16:17:00,
2013-03-12 12:22:00,39.8,26.2,30.07,WNW,287,7.0,8.0,58,0.00,,,0.00,Wunderground v.1.15,2013-03-12 16:22:00,
2013-03-12 12:23:00,40.0,26.0,30.07,WNW,295,7.0,8.0,57,0.00,,,0.00,Wunderground v.1.15,2013-03-12 16:23:00,
2013-03-12 12:24:00,40.0,25.6,30.07,WNW,282,7.0,8.0,56,0.00,,,0.00,Wunderground v.1.15,2013-03-12 16:24:00,
2013-03-12 12:27:00,40.0,25.6,30.07,WSW,246,7.0,12.0,56,0.00,,,0.00,Wunderground v.1.15,2013-03-12 16:27:00,
2013-03-12 12:28:00,40.0,25.1,30.07,WSW,258,7.0,12.0,55,0.00,,,0.00,Wunderground v.1.15,2013-03-12 16:28:00,
2013-03-12 12:30:00,40.0,26.0,30.07,WSW,239,7.0,7.0,57,0.00,,,0.00,Wunderground v.1.15,2013-03-12 16:30:00,
2013-03-12 12:34:00,40.4,25.9,30.07,SW,234,6.0,10.0,56,0.00,,,0.00,Wunderground v.1.15,2013-03-12 16:34:00,
2013-03-12 12:35:00,40.4,25.5,30.07,SW,226,6.0,10.0,55,0.00,,,0.00,Wunderground v.1.15,2013-03-12 16:35:00,
2013-03-12 12:36:00,40.6,25.2,30.07,SW,215,6.0,10.0,54,0.00,,,0.00,Wunderground v.1.15,2013-03-12 16:36:00,
2013-03-12 12:37:00,40.4,25.5,30.07,WSW,254,6.0,10.0,55,0.00,,,0.00,Wunderground v.1.15,2013-03-12 16:37:00,
2013-03-12 12:40:00,40.6,25.2,30.07,WSW,239,6.0,7.0,54,0.00,,,0.00,Wunderground v.1.15,2013-03-12 16:40:00,
2013-03-12 12:43:00,40.6,25.2,30.07,SW,223,7.0,17.0,54,0.00,,,0.00,Wunderground v.1.15,2013-03-12 16:43:00,
2013-03-12 12:44:00,40.4,25.5,30.07,WSW,243,8.0,17.0,55,0.00,,,0.00,Wunderground v.1.15,2013-03-12 16:44:00,
2013-03-12 12:45:00,40.4,25.5,30.07,WNW,294,8.0,17.0,55,0.00,,,0.00,Wunderground v.1.15,2013-03-12 16:45:00,
2013-03-12 12:48:00,41.0,26.5,30.07,SW,217,8.0,17.0,56,0.00,,,0.00,Wunderground v.1.15,2013-03-12 16:48:00,
2013-03-12 12:50:00,41.3,25.4,30.07,WSW,244,7.0,8.0,53,0.00,,,0.00,Wunderground v.1.15,2013-03-12 16:50:00,
2013-03-12 12:54:00,41.4,25.5,30.07,West,275,6.0,10.0,53,0.00,,,0.00,Wunderground v.1.15,2013-03-12 16:54:00,
2013-03-12 12:55:00,41.6,26.6,30.07,SSW,206,6.0,10.0,55,0.00,,,0.00,Wunderground v.1.15,2013-03-12 16:55:00,
2013-03-12 12:59:00,41.7,25.8,30.07,WSW,256,6.0,10.0,53,0.00,,,0.00,Wunderground v.1.15,2013-03-12 16:59:00,
2013-03-12 13:00:00,41.8,25.9,30.07,WSW,240,6.0,6.0,53,0.00,,,0.00,Wunderground v.1.15,2013-03-12 17:00:00,
2013-03-12 13:01:00,42.0,26.5,30.07,West,278,6.0,6.0,54,0.00,,,0.00,Wunderground v.1.15,2013-03-12 17:01:00,
2013-03-12 13:07:00,42.0,25.2,30.07,West,270,6.0,12.0,51,0.00,,,0.00,Wunderground v.1.15,2013-03-12 17:07:00,
2013-03-12 13:08:00,42.0,25.2,30.07,WNW,302,6.0,12.0,51,0.00,,,0.00,Wunderground v.1.15,2013-03-12 17:08:00,
2013-03-12 13:11:00,42.4,26.0,30.07,SW,234,6.0,8.0,52,0.00,,,0.00,Wunderground v.1.15,2013-03-12 17:11:00,
2013-03-12 13:12:00,42.6,25.7,30.07,WSW,256,6.0,8.0,51,0.00,,,0.00,Wunderground v.1.15,2013-03-12 17:12:00,
2013-03-12 13:13:00,42.7,25.3,30.07,NW,315,6.0,8.0,50,0.00,,,0.00,Wunderground v.1.15,2013-03-12 17:13:00,
2013-03-12 13:16:00,42.7,25.3,30.07,NW,306,6.0,8.0,50,0.00,,,0.00,Wunderground v.1.15,2013-03-12 17:16:00,
2013-03-12 13:19:00,43.0,26.6,30.07,West,278,6.0,8.0,52,0.00,,,0.00,Wunderground v.1.15,2013-03-12 17:19:00,
2013-03-12 13:20:00,43.0,26.1,30.07,WSW,248,6.0,6.0,51,0.00,,,0.00,Wunderground v.1.15,2013-03-12 17:20:00,
2013-03-12 13:22:00,43.0,25.6,30.07,WNW,285,6.0,6.0,50,0.00,,,0.00,Wunderground v.1.15,2013-03-12 17:22:00,
2013-03-12 13:24:00,43.0,25.6,30.07,WNW,288,6.0,9.0,50,0.00,,,0.00,Wunderground v.1.15,2013-03-12 17:24:00,
2013-03-12 13:26:00,42.8,25.9,30.07,WSW,253,6.0,9.0,51,0.00,,,0.00,Wunderground v.1.15,2013-03-12 17:26:00,
2013-03-12 13:28:00,42.8,25.9,30.07,West,271,6.0,10.0,51,0.00,,,0.00,Wunderground v.1.15,2013-03-12 17:28:00,
2013-03-12 13:32:00,42.7,25.3,30.07,West,264,7.0,11.0,50,0.00,,,0.00,Wunderground v.1.15,2013-03-12 17:32:00,
2013-03-12 13:34:00,42.7,25.3,30.07,SW,224,8.0,12.0,50,0.00,,,0.00,Wunderground v.1.15,2013-03-12 17:34:00,
2013-03-12 13:35:00,42.7,24.8,30.07,West,278,8.0,12.0,49,0.00,,,0.00,Wunderground v.1.15,2013-03-12 17:35:00,
2013-03-12 13:41:00,43.0,26.1,30.07,WNW,282,7.0,11.0,51,0.00,,,0.00,Wunderground v.1.15,2013-03-12 17:41:00,
2013-03-12 13:43:00,42.8,24.9,30.07,WNW,291,7.0,11.0,49,0.00,,,0.00,Wunderground v.1.15,2013-03-12 17:43:00,
2013-03-12 13:44:00,42.8,25.4,30.07,SW,236,7.0,11.0,50,0.00,,,0.00,Wunderground v.1.15,2013-03-12 17:44:00,
2013-03-12 13:47:00,43.3,26.4,30.06,WNW,282,5.0,11.0,51,0.00,,,0.00,Wunderground v.1.15,2013-03-12 17:47:00,
2013-03-12 13:48:00,43.4,25.0,30.06,West,278,5.0,11.0,48,0.00,,,0.00,Wunderground v.1.15,2013-03-12 17:48:00,
2013-03-12 13:50:00,43.6,25.7,30.06,NNW,332,5.0,5.0,49,0.00,,,0.00,Wunderground v.1.15,2013-03-12 17:50:00,
2013-03-12 13:55:00,43.4,26.0,30.06,WSW,248,5.0,13.0,50,0.00,,,0.00,Wunderground v.1.15,2013-03-12 17:55:00,
2013-03-12 13:59:00,43.4,26.0,30.06,West,271,7.0,18.0,50,0.00,,,0.00,Wunderground v.1.15,2013-03-12 17:59:00,
2013-03-12 14:00:00,43.4,25.5,30.07,NNW,328,7.0,7.0,49,0.00,,,0.00,Wunderground v.1.15,2013-03-12 18:00:00,
2013-03-12 14:01:00,43.4,26.0,30.07,NW,313,7.0,7.0,50,0.00,,,0.00,Wunderground v.1.15,2013-03-12 18:01:00,
2013-03-12 14:06:00,43.4,25.0,30.07,West,271,8.0,9.0,48,0.00,,,0.00,Wunderground v.1.15,2013-03-12 18:06:00,
2013-03-12 14:07:00,43.4,25.0,30.07,WSW,248,8.0,9.0,48,0.00,,,0.00,Wunderground v.1.15,2013-03-12 18:07:00,
2013-03-12 14:08:00,43.6,25.7,30.07,West,260,7.0,9.0,49,0.00,,,0.00,Wunderground v.1.15,2013-03-12 18:08:00,
2013-03-12 14:11:00,44.0,25.0,30.07,West,271,7.0,16.0,47,0.00,,,0.00,Wunderground v.1.15,2013-03-12 18:11:00,
2013-03-12 14:13:00,44.0,25.5,30.07,NW,311,7.0,16.0,48,0.00,,,0.00,Wunderground v.1.15,2013-03-12 18:13:00,
2013-03-12 14:14:00,44.0,26.0,30.07,NW,318,7.0,16.0,49,0.00,,,0.00,Wunderground v.1.15,2013-03-12 18:14:00,
2013-03-12 14:18:00,44.4,26.4,30.06,NW,313,7.0,16.0,49,0.00,,,0.00,Wunderground v.1.15,2013-03-12 18:18:00,
2013-03-12 14:19:00,44.4,25.9,30.06,WNW,302,8.0,16.0,48,0.00,,,0.00,Wunderground v.1.15,2013-03-12 18:19:00,
2013-03-12 14:25:00,44.3,25.8,30.06,West,263,7.0,14.0,48,0.00,,,0.00,Wunderground v.1.15,2013-03-12 18:25:00,
2013-03-12 14:26:00,44.4,25.4,30.06,SW,230,7.0,14.0,47,0.00,,,0.00,Wunderground v.1.15,2013-03-12 18:26:00,
2013-03-12 14:30:00,44.3,25.8,30.06,West,271,8.0,8.0,48,0.00,,,0.00,Wunderground v.1.15,2013-03-12 18:30:00,
2013-03-12 14:33:00,44.4,25.9,30.06,West,277,8.0,10.0,48,0.00,,,0.00,Wunderground v.1.15,2013-03-12 18:33:00,
2013-03-12 14:36:00,44.6,26.1,30.06,West,268,8.0,10.0,48,0.00,,,0.00,Wunderground v.1.15,2013-03-12 18:36:00,
2013-03-12 14:37:00,44.7,26.2,30.06,WNW,291,8.0,10.0,48,0.00,,,0.00,Wunderground v.1.15,2013-03-12 18:37:00,
2013-03-12 14:39:00,44.8,26.8,30.06,WNW,282,7.0,10.0,49,0.00,,,0.00,Wunderground v.1.15,2013-03-12 18:39:00,
2013-03-12 14:41:00,45.0,26.5,30.06,West,267,8.0,10.0,48,0.00,,,0.00,Wunderground v.1.15,2013-03-12 18:41:00,
2013-03-12 14:44:00,45.0,27.0,30.06,West,265,8.0,11.0,49,0.00,,,0.00,Wunderground v.1.15,2013-03-12 18:44:00,
2013-03-12 14:45:00,44.8,25.8,30.06,West,280,8.0,11.0,47,0.00,,,0.00,Wunderground v.1.15,2013-03-12 18:45:00,
2013-03-12 14:49:00,44.7,26.7,30.06,SSW,205,9.0,11.0,49,0.00,,,0.00,Wunderground v.1.15,2013-03-12 18:49:00,
2013-03-12 14:51:00,44.7,25.7,30.06,West,272,9.0,10.0,47,0.00,,,0.00,Wunderground v.1.15,2013-03-12 18:51:00,
2013-03-12 14:54:00,44.8,25.8,30.06,NNW,342,8.0,10.0,47,0.00,,,0.00,Wunderground v.1.15,2013-03-12 18:54:00,
2013-03-12 14:55:00,45.0,27.0,30.06,West,270,8.0,14.0,49,0.00,,,0.00,Wunderground v.1.15,2013-03-12 18:55:00,
2013-03-12 14:56:00,45.0,26.5,30.06,WNW,285,8.0,14.0,48,0.00,,,0.00,Wunderground v.1.15,2013-03-12 18:56:00,
2013-03-12 15:00:00,45.3,26.7,30.05,WNW,285,7.0,7.0,48,0.00,,,0.00,Wunderground v.1.15,2013-03-12 19:00:00,
2013-03-12 15:01:00,45.3,26.7,30.05,West,274,7.0,7.0,48,0.00,,,0.00,Wunderground v.1.15,2013-03-12 19:01:00,
2013-03-12 15:05:00,45.4,26.3,30.05,West,263,7.0,13.0,47,0.00,,,0.00,Wunderground v.1.15,2013-03-12 19:05:00,
2013-03-12 15:06:00,45.4,26.3,30.05,SW,224,7.0,13.0,47,0.00,,,0.00,Wunderground v.1.15,2013-03-12 19:06:00,
2013-03-12 15:08:00,45.6,26.5,30.05,WNW,285,7.0,14.0,47,0.00,,,0.00,Wunderground v.1.15,2013-03-12 19:08:00,
2013-03-12 15:12:00,45.9,26.3,30.05,WSW,244,6.0,13.0,46,0.00,,,0.00,Wunderground v.1.15,2013-03-12 19:12:00,
2013-03-12 15:13:00,46.0,26.9,30.05,WSW,247,7.0,13.0,47,0.00,,,0.00,Wunderground v.1.15,2013-03-12 19:13:00,
2013-03-12 15:14:00,46.0,26.9,30.05,WSW,256,7.0,13.0,47,0.00,,,0.00,Wunderground v.1.15,2013-03-12 19:14:00,
2013-03-12 15:19:00,46.5,26.3,30.04,WNW,284,6.0,13.0,45,0.00,,,0.00,Wunderground v.1.15,2013-03-12 19:19:00,
2013-03-12 15:20:00,46.5,26.3,30.04,WSW,258,5.0,6.0,45,0.00,,,0.00,Wunderground v.1.15,2013-03-12 19:20:00,
2013-03-12 15:22:00,46.6,26.9,30.04,West,274,6.0,12.0,46,0.00,,,0.00,Wunderground v.1.15,2013-03-12 19:22:00,
2013-03-12 15:25:00,46.6,26.9,30.04,WSW,247,6.0,12.0,46,0.00,,,0.00,Wunderground v.1.15,2013-03-12 19:25:00,
2013-03-12 15:26:00,46.7,27.0,30.04,West,265,6.0,12.0,46,0.00,,,0.00,Wunderground v.1.15,2013-03-12 19:26:00,
2013-03-12 15:28:00,46.7,25.9,30.04,West,277,7.0,12.0,44,0.00,,,0.00,Wunderground v.1.15,2013-03-12 19:28:00,
2013-03-12 15:29:00,46.7,25.9,30.04,West,270,7.0,12.0,44,0.00,,,0.00,Wunderground v.1.15,2013-03-12 19:29:00,
2013-03-12 15:30:00,46.5,26.3,30.04,West,263,8.0,13.0,45,0.00,,,0.00,Wunderground v.1.15,2013-03-12 19:30:00,
2013-03-12 15:33:00,46.5,26.3,30.04,West,271,8.0,13.0,45,0.00,,,0.00,Wunderground v.1.15,2013-03-12 19:33:00,
2013-03-12 15:36:00,46.7,25.9,30.04,SW,236,9.0,13.0,44,0.00,,,0.00,Wunderground v.1.15,2013-03-12 19:36:00,
2013-03-12 15:37:00,46.7,26.5,30.04,WSW,251,9.0,13.0,45,0.00,,,0.00,Wunderground v.1.15,2013-03-12 19:37:00,
2013-03-12 15:40:00,46.9,26.1,30.04,West,275,8.0,8.0,44,0.00,,,0.00,Wunderground v.1.15,2013-03-12 19:40:00,
2013-03-12 15:41:00,46.9,26.6,30.04,WNW,302,7.0,8.0,45,0.00,,,0.00,Wunderground v.1.15,2013-03-12 19:41:00,
2013-03-12 15:42:00,47.0,26.7,30.04,SW,215,7.0,8.0,45,0.00,,,0.00,Wunderground v.1.15,2013-03-12 19:42:00,
2013-03-12 15:46:00,47.3,27.0,30.04,West,274,6.0,15.0,45,0.00,,,0.00,Wunderground v.1.15,2013-03-12 19:46:00,
2013-03-12 15:48:00,47.3,26.5,30.04,WSW,250,7.0,15.0,44,0.00,,,0.00,Wunderground v.1.15,2013-03-12 19:48:00,
2013-03-12 15:51:00,46.7,25.9,30.04,West,278,7.0,8.0,44,0.00,,,0.00,Wunderground v.1.15,2013-03-12 19:51:00,
2013-03-12 15:54:00,46.3,26.1,30.04,West,267,8.0,18.0,45,0.00,,,0.00,Wunderground v.1.15,2013-03-12 19:54:00,
2013-03-12 15:56:00,46.0,26.4,30.04,West,281,9.0,18.0,46,0.00,,,0.00,Wunderground v.1.15,2013-03-12 19:56:00,
2013-03-12 15:57:00,46.0,26.4,30.04,WSW,254,9.0,18.0,46,0.00,,,0.00,Wunderground v.1.15,2013-03-12 19:57:00,
2013-03-12 15:58:00,46.0,26.4,30.04,West,281,9.0,18.0,46,0.00,,,0.00,Wunderground v.1.15,2013-03-12 19:58:00,
2013-03-12 16:02:00,46.3,27.2,30.04,NNW,336,7.0,10.0,47,0.00,,,0.00,Wunderground v.1.15,2013-03-12 20:02:00,
2013-03-12 16:05:00,46.3,27.2,30.04,WNW,287,7.0,15.0,47,0.00,,,0.00,Wunderground v.1.15,2013-03-12 20:05:00,
2013-03-12 16:06:00,46.3,26.6,30.04,WNW,282,7.0,15.0,46,0.00,,,0.00,Wunderground v.1.15,2013-03-12 20:06:00,
2013-03-12 16:08:00,46.3,27.2,30.04,West,271,8.0,15.0,47,0.00,,,0.00,Wunderground v.1.15,2013-03-12 20:08:00,
2013-03-12 16:11:00,46.3,26.6,30.04,WSW,257,9.0,15.0,46,0.00,,,0.00,Wunderground v.1.15,2013-03-12 20:11:00,
2013-03-12 16:13:00,46.2,26.0,30.04,West,274,9.0,19.0,45,0.00,,,0.00,Wunderground v.1.15,2013-03-12 20:13:00,
2013-03-12 16:14:00,46.2,27.1,30.04,West,277,9.0,19.0,47,0.00,,,0.00,Wunderground v.1.15,2013-03-12 20:14:00,
2013-03-12 16:19:00,45.9,27.3,30.03,West,272,9.0,19.0,48,0.00,,,0.00,Wunderground v.1.15,2013-03-12 20:19:00,
2013-03-12 16:20:00,46.0,26.9,30.03,WNW,289,9.0,9.0,47,0.00,,,0.00,Wunderground v.1.15,2013-03-12 20:20:00,
2013-03-12 16:21:00,46.2,27.6,30.03,WSW,239,8.0,19.0,48,0.00,,,0.00,Wunderground v.1.15,2013-03-12 20:21:00,
2013-03-12 16:25:00,46.7,27.0,30.03,WSW,253,8.0,19.0,46,0.00,,,0.00,Wunderground v.1.15,2013-03-12 20:25:00,
2013-03-12 16:28:00,46.9,25.5,30.03,WSW,257,8.0,19.0,43,0.00,,,0.00,Wunderground v.1.15,2013-03-12 20:28:00,
2013-03-12 16:29:00,46.9,26.6,30.03,West,272,9.0,19.0,45,0.00,,,0.00,Wunderground v.1.15,2013-03-12 20:29:00,
2013-03-12 16:30:00,46.9,26.6,30.03,SW,236,9.0,13.0,45,0.00,,,0.00,Wunderground v.1.15,2013-03-12 20:30:00,
2013-03-12 16:32:00,46.9,26.6,30.03,WNW,292,9.0,13.0,45,0.00,,,0.00,Wunderground v.1.15,2013-03-12 20:32:00,
2013-03-12 16:36:00,46.6,26.4,30.03,WNW,282,9.0,17.0,45,0.00,,,0.00,Wunderground v.1.15,2013-03-12 20:36:00,
2013-03-12 16:38:00,46.6,26.4,30.03,NNW,332,9.0,17.0,45,0.00,,,0.00,Wunderground v.1.15,2013-03-12 20:38:00,
2013-03-12 16:39:00,46.6,26.9,30.03,NW,325,9.0,17.0,46,0.00,,,0.00,Wunderground v.1.15,2013-03-12 20:39:00,
2013-03-12 16:41:00,46.7,27.5,30.03,West,260,8.0,12.0,47,0.00,,,0.00,Wunderground v.1.15,2013-03-12 20:41:00,
2013-03-12 16:44:00,46.6,25.8,30.03,West,271,9.0,18.0,44,0.00,,,0.00,Wunderground v.1.15,2013-03-12 20:44:00,
2013-03-12 16:48:00,46.2,26.0,30.03,WSW,250,9.0,18.0,45,0.00,,,0.00,Wunderground v.1.15,2013-03-12 20:48:00,
2013-03-12 16:49:00,46.2,26.0,30.03,SW,236,9.0,18.0,45,0.00,,,0.00,Wunderground v.1.15,2013-03-12 20:49:00,
2013-03-12 16:50:00,46.2,26.0,30.03,West,260,9.0,9.0,45,0.00,,,0.00,Wunderground v.1.15,2013-03-12 20:50:00,
2013-03-12 16:51:00,46.2,26.0,30.03,WSW,246,10.0,10.0,45,0.00,,,0.00,Wunderground v.1.15,2013-03-12 20:51:00,
2013-03-12 16:54:00,46.5,26.3,30.03,NW,312,9.0,16.0,45,0.00,,,0.00,Wunderground v.1.15,2013-03-12 20:54:00,
2013-03-12 16:55:00,46.6,25.8,30.03,SW,224,9.0,16.0,44,0.00,,,0.00,Wunderground v.1.15,2013-03-12 20:55:00,
2013-03-12 16:59:00,46.7,25.9,30.03,WNW,298,8.0,16.0,44,0.00,,,0.00,Wunderground v.1.15,2013-03-12 20:59:00,
2013-03-12 17:00:00,46.9,25.5,30.03,NW,313,7.0,16.0,43,0.00,,,0.00,Wunderground v.1.15,2013-03-12 21:00:00,
2013-03-12 17:03:00,46.9,25.5,30.03,WNW,288,8.0,20.0,43,0.00,,,0.00,Wunderground v.1.15,2013-03-12 21:03:00,
2013-03-12 17:04:00,46.7,24.8,30.03,SSW,208,8.0,20.0,42,0.00,,,0.00,Wunderground v.1.15,2013-03-12 21:04:00,
2013-03-12 17:07:00,46.7,25.4,30.03,West,278,9.0,20.0,43,0.00,,,0.00,Wunderground v.1.15,2013-03-12 21:07:00,
2013-03-12 17:08:00,46.7,24.8,30.03,West,271,9.0,20.0,42,0.00,,,0.00,Wunderground v.1.15,2013-03-12 21:08:00,
2013-03-12 17:11:00,46.9,25.5,30.03,West,280,9.0,9.0,43,0.00,,,0.00,Wunderground v.1.15,2013-03-12 21:11:00,
2013-03-12 17:12:00,47.0,25.6,30.03,West,277,8.0,9.0,43,0.00,,,0.00,Wunderground v.1.15,2013-03-12 21:12:00,
2013-03-12 17:13:00,47.0,25.6,30.03,SW,226,8.0,9.0,43,0.00,,,0.00,Wunderground v.1.15,2013-03-12 21:13:00,
2013-03-12 17:18:00,47.2,25.8,30.03,SSW,206,7.0,11.0,43,0.00,,,0.00,Wunderground v.1.15,2013-03-12 21:18:00,
2013-03-12 17:24:00,47.0,25.6,30.03,West,278,7.0,12.0,43,0.00,,,0.00,Wunderground v.1.15,2013-03-12 21:24:00,
2013-03-12 17:25:00,47.0,25.6,30.03,SW,229,7.0,12.0,43,0.00,,,0.00,Wunderground v.1.15,2013-03-12 21:25:00,
2013-03-12 17:26:00,47.0,25.6,30.03,WSW,250,7.0,12.0,43,0.00,,,0.00,Wunderground v.1.15,2013-03-12 21:26:00,
2013-03-12 17:27:00,47.0,25.1,30.03,WSW,246,7.0,12.0,42,0.00,,,0.00,Wunderground v.1.15,2013-03-12 21:27:00,
2013-03-12 17:31:00,46.7,25.9,30.03,West,281,7.0,8.0,44,0.00,,,0.00,Wunderground v.1.15,2013-03-12 21:31:00,
2013-03-12 17:33:00,46.7,25.4,30.03,WSW,239,8.0,12.0,43,0.00,,,0.00,Wunderground v.1.15,2013-03-12 21:33:00,
2013-03-12 17:35:00,46.7,25.9,30.03,West,271,7.0,12.0,44,0.00,,,0.00,Wunderground v.1.15,2013-03-12 21:35:00,
2013-03-12 17:38:00,46.9,25.0,30.03,WNW,302,7.0,13.0,42,0.00,,,0.00,Wunderground v.1.15,2013-03-12 21:38:00,
2013-03-12 17:39:00,46.7,25.4,30.03,WSW,247,7.0,14.0,43,0.00,,,0.00,Wunderground v.1.15,2013-03-12 21:39:00,
2013-03-12 17:41:00,46.6,25.3,30.03,West,261,8.0,10.0,43,0.00,,,0.00,Wunderground v.1.15,2013-03-12 21:41:00,
2013-03-12 17:43:00,46.5,25.2,30.03,West,275,9.0,19.0,43,0.00,,,0.00,Wunderground v.1.15,2013-03-12 21:43:00,
2013-03-12 17:46:00,46.5,25.2,30.03,WSW,251,10.0,19.0,43,0.00,,,0.00,Wunderground v.1.15,2013-03-12 21:46:00,
2013-03-12 17:48:00,46.5,24.6,30.03,WNW,295,9.0,19.0,42,0.00,,,0.00,Wunderground v.1.15,2013-03-12 21:48:00,
2013-03-12 17:52:00,46.5,25.2,30.03,WSW,243,8.0,9.0,43,0.00,,,0.00,Wunderground v.1.15,2013-03-12 21:52:00,
2013-03-12 17:53:00,46.6,25.3,30.03,West,281,8.0,9.0,43,0.00,,,0.00,Wunderground v.1.15,2013-03-12 21:53:00,
2013-03-12 17:55:00,46.6,24.7,30.03,WNW,284,7.0,10.0,42,0.00,,,0.00,Wunderground v.1.15,2013-03-12 21:55:00,
2013-03-12 17:59:00,46.7,25.4,30.03,West,281,7.0,12.0,43,0.00,,,0.00,Wunderground v.1.15,2013-03-12 21:59:00,
2013-03-12 18:00:00,46.7,24.8,30.03,WNW,282,7.0,16.0,42,0.00,,,0.00,Wunderground v.1.15,2013-03-12 22:00:00,
2013-03-12 18:03:00,46.5,25.2,30.03,NW,316,8.0,16.0,43,0.00,,,0.00,Wunderground v.1.15,2013-03-12 22:03:00,
2013-03-12 18:06:00,46.3,25.0,30.03,WNW,287,8.0,16.0,43,0.00,,,0.00,Wunderground v.1.15,2013-03-12 22:06:00,
2013-03-12 18:09:00,46.0,25.3,30.03,West,270,9.0,16.0,44,0.00,,,0.00,Wunderground v.1.15,2013-03-12 22:09:00,
2013-03-12 18:10:00,45.9,25.2,30.03,West,272,9.0,9.0,44,0.00,,,0.00,Wunderground v.1.15,2013-03-12 22:10:00,
2013-03-12 18:11:00,45.9,25.2,30.03,West,277,9.0,13.0,44,0.00,,,0.00,Wunderground v.1.15,2013-03-12 22:11:00,
2013-03-12 18:13:00,45.7,24.5,30.03,NW,309,8.0,13.0,43,0.00,,,0.00,Wunderground v.1.15,2013-03-12 22:13:00,
2013-03-12 18:14:00,45.7,24.5,30.03,WNW,296,8.0,13.0,43,0.00,,,0.00,Wunderground v.1.15,2013-03-12 22:14:00,
2013-03-12 18:18:00,45.6,23.2,30.03,WNW,282,7.0,13.0,41,0.00,,,0.00,Wunderground v.1.15,2013-03-12 22:18:00,
2013-03-12 18:20:00,45.6,23.8,30.03,NW,315,7.0,12.0,42,0.00,,,0.00,Wunderground v.1.15,2013-03-12 22:20:00,
2013-03-12 18:21:00,45.6,23.8,30.03,NW,319,7.0,12.0,42,0.00,,,0.00,Wunderground v.1.15,2013-03-12 22:21:00,
2013-03-12 18:24:00,45.6,24.4,30.03,WNW,298,7.0,12.0,43,0.00,,,0.00,Wunderground v.1.15,2013-03-12 22:24:00,
2013-03-12 18:27:00,45.3,24.1,30.03,WNW,288,7.0,16.0,43,0.00,,,0.00,Wunderground v.1.15,2013-03-12 22:27:00,
2013-03-12 18:30:00,45.3,24.6,30.04,West,271,7.0,7.0,44,0.00,,,0.00,Wunderground v.1.15,2013-03-12 22:30:00,
2013-03-12 18:31:00,45.1,25.0,30.04,WSW,258,7.0,10.0,45,0.00,,,0.00,Wunderground v.1.15,2013-03-12 22:31:00,
2013-03-12 18:33:00,45.1,24.5,30.04,West,271,8.0,10.0,44,0.00,,,0.00,Wunderground v.1.15,2013-03-12 22:33:00,
2013-03-12 18:37:00,44.8,24.7,30.04,WNW,285,7.0,13.0,45,0.00,,,0.00,Wunderground v.1.15,2013-03-12 22:37:00,
2013-03-12 18:39:00,44.8,25.3,30.04,WSW,253,7.0,13.0,46,0.00,,,0.00,Wunderground v.1.15,2013-03-12 22:39:00,
2013-03-12 18:40:00,44.8,24.7,30.04,West,274,7.0,8.0,45,0.00,,,0.00,Wunderground v.1.15,2013-03-12 22:40:00,
2013-03-12 18:41:00,44.8,24.7,30.04,West,268,7.0,9.0,45,0.00,,,0.00,Wunderground v.1.15,2013-03-12 22:41:00,
2013-03-12 18:44:00,44.8,24.7,30.04,West,278,7.0,12.0,45,0.00,,,0.00,Wunderground v.1.15,2013-03-12 22:44:00,
2013-03-12 18:45:00,44.8,24.7,30.04,West,261,8.0,12.0,45,0.00,,,0.00,Wunderground v.1.15,2013-03-12 22:45:00,
2013-03-12 18:48:00,44.8,24.7,30.04,WSW,244,7.0,12.0,45,0.00,,,0.00,Wunderground v.1.15,2013-03-12 22:48:00,
2013-03-12 18:51:00,44.8,24.7,30.04,WNW,282,6.0,14.0,45,0.00,,,0.00,Wunderground v.1.15,2013-03-12 22:51:00,
2013-03-12 18:53:00,44.8,25.3,30.04,West,270,6.0,14.0,46,0.00,,,0.00,Wunderground v.1.15,2013-03-12 22:53:00,
2013-03-12 18:55:00,44.7,25.2,30.04,WSW,246,5.0,14.0,46,0.00,,,0.00,Wunderground v.1.15,2013-03-12 22:55:00,
2013-03-12 18:57:00,44.7,25.2,30.04,WNW,282,5.0,14.0,46,0.00,,,0.00,Wunderground v.1.15,2013-03-12 22:57:00,
2013-03-12 18:59:00,44.6,25.6,30.04,West,277,5.0,14.0,47,0.00,,,0.00,Wunderground v.1.15,2013-03-12 22:59:00,
2013-03-12 19:00:00,44.6,25.1,30.05,WNW,285,5.0,6.0,46,0.00,,,0.00,Wunderground v.1.15,2013-03-12 23:00:00,
2013-03-12 19:03:00,44.6,25.1,30.05,WNW,285,4.0,11.0,46,0.00,,,0.00,Wunderground v.1.15,2013-03-12 23:03:00,
2013-03-12 19:04:00,44.4,24.4,30.05,WNW,284,5.0,11.0,45,0.00,,,0.00,Wunderground v.1.15,2013-03-12 23:04:00,
2013-03-12 19:05:00,44.4,24.4,30.05,West,268,5.0,11.0,45,0.00,,,0.00,Wunderground v.1.15,2013-03-12 23:05:00,
2013-03-12 19:07:00,44.4,24.4,30.05,WNW,285,5.0,11.0,45,0.00,,,0.00,Wunderground v.1.15,2013-03-12 23:07:00,
2013-03-12 19:11:00,44.4,23.3,30.05,WNW,295,7.0,17.0,43,0.00,,,0.00,Wunderground v.1.15,2013-03-12 23:11:00,
2013-03-12 19:12:00,44.4,23.3,30.05,WNW,299,8.0,17.0,43,0.00,,,0.00,Wunderground v.1.15,2013-03-12 23:12:00,
2013-03-12 19:15:00,44.6,23.5,30.05,West,280,7.0,17.0,43,0.00,,,0.00,Wunderground v.1.15,2013-03-12 23:15:00,
2013-03-12 19:17:00,44.6,23.5,30.05,NW,319,7.0,17.0,43,0.00,,,0.00,Wunderground v.1.15,2013-03-12 23:17:00,
2013-03-12 19:19:00,44.4,23.3,30.05,WNW,287,8.0,17.0,43,0.00,,,0.00,Wunderground v.1.15,2013-03-12 23:19:00,
2013-03-12 19:21:00,44.4,23.3,30.05,West,281,6.0,7.0,43,0.00,,,0.00,Wunderground v.1.15,2013-03-12 23:21:00,
2013-03-12 19:23:00,44.4,23.3,30.05,WNW,282,6.0,7.0,43,0.00,,,0.00,Wunderground v.1.15,2013-03-12 23:23:00,
2013-03-12 19:24:00,44.3,23.7,30.05,WNW,282,5.0,7.0,44,0.00,,,0.00,Wunderground v.1.15,2013-03-12 23:24:00,
2013-03-12 19:25:00,44.3,23.2,30.05,WNW,289,5.0,7.0,43,0.00,,,0.00,Wunderground v.1.15,2013-03-12 23:25:00,
2013-03-12 19:28:00,44.1,23.0,30.05,West,277,5.0,9.0,43,0.00,,,0.00,Wunderground v.1.15,2013-03-12 23:28:00,
2013-03-12 19:31:00,44.0,22.9,30.05,NW,313,4.0,6.0,43,0.00,,,0.00,Wunderground v.1.15,2013-03-12 23:31:00,
2013-03-12 19:33:00,43.8,23.3,30.05,WSW,257,3.0,6.0,44,0.00,,,0.00,Wunderground v.1.15,2013-03-12 23:33:00,
2013-03-12 19:36:00,43.7,23.7,30.05,WNW,287,3.0,6.0,45,0.00,,,0.00,Wunderground v.1.15,2013-03-12 23:36:00,
2013-03-12 19:37:00,43.6,23.6,30.05,West,271,3.0,6.0,45,0.00,,,0.00,Wunderground v.1.15,2013-03-12 23:37:00,
2013-03-12 19:38:00,43.6,23.6,30.05,West,274,2.0,6.0,45,0.00,,,0.00,Wunderground v.1.15,2013-03-12 23:38:00,
2013-03-12 19:39:00,43.6,23.6,30.05,West,277,2.0,6.0,45,0.00,,,0.00,Wunderground v.1.15,2013-03-12 23:39:00,
2013-03-12 19:43:00,43.3,23.4,30.05,West,281,2.0,3.0,45,0.00,,,0.00,Wunderground v.1.15,2013-03-12 23:43:00,
2013-03-12 19:46:00,43.1,23.2,30.06,SW,227,2.0,5.0,45,0.00,,,0.00,Wunderground v.1.15,2013-03-12 23:46:00,
2013-03-12 19:47:00,43.1,23.2,30.06,West,268,3.0,5.0,45,0.00,,,0.00,Wunderground v.1.15,2013-03-12 23:47:00,
2013-03-12 19:48:00,43.0,23.1,30.06,West,268,3.0,5.0,45,0.00,,,0.00,Wunderground v.1.15,2013-03-12 23:48:00,
2013-03-12 19:49:00,43.0,23.6,30.06,West,268,3.0,5.0,46,0.00,,,0.00,Wunderground v.1.15,2013-03-12 23:49:00,
2013-03-12 19:53:00,42.8,23.4,30.06,West,267,2.0,6.0,46,0.00,,,0.00,Wunderground v.1.15,2013-03-12 23:53:00,
2013-03-12 19:56:00,42.7,23.8,30.06,WNW,287,1.0,6.0,47,0.00,,,0.00,Wunderground v.1.15,2013-03-12 23:56:00,
2013-03-12 19:58:00,42.7,23.8,30.06,WNW,291,1.0,6.0,47,0.00,,,0.00,Wunderground v.1.15,2013-03-12 23:58:00,
2013-03-12 20:01:00,42.6,23.8,30.06,West,271,2.0,7.0,47,0.00,,,0.00,Wunderground v.1.15,2013-03-13 00:01:00,
2013-03-12 20:04:00,42.6,23.8,30.06,NW,320,3.0,7.0,47,0.00,,,0.00,Wunderground v.1.15,2013-03-13 00:04:00,
2013-03-12 20:06:00,42.6,23.8,30.06,West,281,3.0,7.0,47,0.00,,,0.00,Wunderground v.1.15,2013-03-13 00:06:00,
2013-03-12 20:07:00,42.6,23.8,30.06,WSW,258,3.0,7.0,47,0.00,,,0.00,Wunderground v.1.15,2013-03-13 00:07:00,
2013-03-12 20:08:00,42.4,23.6,30.06,West,271,3.0,7.0,47,0.00,,,0.00,Wunderground v.1.15,2013-03-13 00:08:00,
2013-03-12 20:12:00,42.4,24.1,30.06,West,277,2.0,3.0,48,0.00,,,0.00,Wunderground v.1.15,2013-03-13 00:12:00,
2013-03-12 20:15:00,42.4,24.1,30.06,WNW,291,2.0,3.0,48,0.00,,,0.00,Wunderground v.1.15,2013-03-13 00:15:00,
2013-03-12 20:18:00,42.4,24.1,30.06,WSW,254,1.0,3.0,48,0.00,,,0.00,Wunderground v.1.15,2013-03-13 00:18:00,
2013-03-12 20:21:00,42.4,24.6,30.06,West,265,2.0,5.0,49,0.00,,,0.00,Wunderground v.1.15,2013-03-13 00:21:00,
2013-03-12 20:22:00,42.4,24.6,30.06,West,267,3.0,5.0,49,0.00,,,0.00,Wunderground v.1.15,2013-03-13 00:22:00,
2013-03-12 20:25:00,42.4,24.6,30.06,West,277,3.0,5.0,49,0.00,,,0.00,Wunderground v.1.15,2013-03-13 00:25:00,
2013-03-12 20:28:00,42.4,24.6,30.06,West,271,3.0,5.0,49,0.00,,,0.00,Wunderground v.1.15,2013-03-13 00:28:00,
2013-03-12 20:29:00,42.4,24.6,30.06,West,271,2.0,6.0,49,0.00,,,0.00,Wunderground v.1.15,2013-03-13 00:29:00,
2013-03-12 20:30:00,42.4,24.6,30.07,West,274,2.0,2.0,49,0.00,,,0.00,Wunderground v.1.15,2013-03-13 00:30:00,
2013-03-12 20:32:00,42.6,25.2,30.07,West,265,2.0,5.0,50,0.00,,,0.00,Wunderground v.1.15,2013-03-13 00:32:00,
2013-03-12 20:34:00,42.6,25.2,30.07,West,281,2.0,5.0,50,0.00,,,0.00,Wunderground v.1.15,2013-03-13 00:34:00,
2013-03-12 20:36:00,42.6,25.2,30.07,West,280,2.0,7.0,50,0.00,,,0.00,Wunderground v.1.15,2013-03-13 00:36:00,
2013-03-12 20:38:00,42.7,25.3,30.07,WSW,246,3.0,11.0,50,0.00,,,0.00,Wunderground v.1.15,2013-03-13 00:38:00,
2013-03-12 20:39:00,42.7,25.8,30.07,WSW,254,5.0,17.0,51,0.00,,,0.00,Wunderground v.1.15,2013-03-13 00:39:00,
2013-03-12 20:42:00,42.7,26.3,30.07,WSW,254,6.0,17.0,52,0.00,,,0.00,Wunderground v.1.15,2013-03-13 00:42:00,
2013-03-12 20:43:00,42.7,26.3,30.07,WSW,253,7.0,17.0,52,0.00,,,0.00,Wunderground v.1.15,2013-03-13 00:43:00,
2013-03-12 20:44:00,42.7,26.3,30.07,West,277,7.0,17.0,52,0.00,,,0.00,Wunderground v.1.15,2013-03-13 00:44:00,
2013-03-12 20:48:00,42.6,26.6,30.07,NW,318,9.0,17.0,53,0.00,,,0.00,Wunderground v.1.15,2013-03-13 00:48:00,
2013-03-12 20:51:00,42.4,26.5,30.07,West,274,7.0,7.0,53,0.00,,,0.00,Wunderground v.1.15,2013-03-13 00:51:00,
2013-03-12 20:52:00,42.4,26.5,30.07,WNW,284,7.0,7.0,53,0.00,,,0.00,Wunderground v.1.15,2013-03-13 00:52:00,
2013-03-12 20:54:00,42.4,26.5,30.07,WSW,243,6.0,9.0,53,0.00,,,0.00,Wunderground v.1.15,2013-03-13 00:54:00,
2013-03-12 20:57:00,42.3,26.8,30.07,West,270,5.0,9.0,54,0.00,,,0.00,Wunderground v.1.15,2013-03-13 00:57:00,
2013-03-12 20:59:00,42.3,27.3,30.07,WSW,257,5.0,9.0,55,0.00,,,0.00,Wunderground v.1.15,2013-03-13 00:59:00,
2013-03-12 21:01:00,42.3,27.3,30.08,NNW,337,6.0,7.0,55,0.00,,,0.00,Wunderground v.1.15,2013-03-13 01:01:00,
2013-03-12 21:05:00,42.0,28.7,30.08,NW,320,7.0,14.0,59,0.00,,,0.00,Wunderground v.1.15,2013-03-13 01:05:00,
2013-03-12 21:07:00,41.7,28.8,30.08,WNW,299,9.0,19.0,60,0.00,,,0.00,Wunderground v.1.15,2013-03-13 01:07:00,
2013-03-12 21:08:00,41.7,28.8,30.08,NNW,330,9.0,19.0,60,0.00,,,0.00,Wunderground v.1.15,2013-03-13 01:08:00,
2013-03-12 21:10:00,41.4,28.9,30.08,WNW,298,10.0,10.0,61,0.00,,,0.00,Wunderground v.1.15,2013-03-13 01:10:00,
2013-03-12 21:12:00,41.4,28.9,30.08,WNW,296,10.0,11.0,61,0.00,,,0.00,Wunderground v.1.15,2013-03-13 01:12:00,
2013-03-12 21:15:00,41.3,28.9,30.08,WNW,302,9.0,11.0,61,0.00,,,0.00,Wunderground v.1.15,2013-03-13 01:15:00,
2013-03-12 21:16:00,41.3,28.9,30.08,WSW,257,8.0,11.0,61,0.00,,,0.00,Wunderground v.1.15,2013-03-13 01:16:00,
2013-03-12 21:18:00,41.3,28.9,30.08,WNW,288,7.0,11.0,61,0.00,,,0.00,Wunderground v.1.15,2013-03-13 01:18:00,
2013-03-12 21:20:00,41.1,29.1,30.08,WNW,299,7.0,7.0,62,0.00,,,0.00,Wunderground v.1.15,2013-03-13 01:20:00,
2013-03-12 21:22:00,41.1,29.1,30.08,WNW,302,6.0,12.0,62,0.00,,,0.00,Wunderground v.1.15,2013-03-13 01:22:00,
2013-03-12 21:24:00,41.1,29.1,30.08,NW,308,7.0,12.0,62,0.00,,,0.00,Wunderground v.1.15,2013-03-13 01:24:00,
2013-03-12 21:26:00,41.0,29.0,30.08,West,280,7.0,16.0,62,0.00,,,0.00,Wunderground v.1.15,2013-03-13 01:26:00,
2013-03-12 21:30:00,41.0,29.4,30.09,NW,308,6.0,11.0,63,0.00,,,0.00,Wunderground v.1.15,2013-03-13 01:30:00,
2013-03-12 21:31:00,41.0,29.4,30.09,NNW,335,6.0,11.0,63,0.00,,,0.00,Wunderground v.1.15,2013-03-13 01:31:00,
2013-03-12 21:32:00,41.0,29.7,30.09,NW,323,6.0,11.0,64,0.00,,,0.00,Wunderground v.1.15,2013-03-13 01:32:00,
2013-03-12 21:36:00,40.8,29.9,30.09,NW,304,6.0,13.0,65,0.00,,,0.00,Wunderground v.1.15,2013-03-13 01:36:00,
2013-03-12 21:38:00,40.7,30.2,30.09,WNW,284,7.0,13.0,66,0.00,,,0.00,Wunderground v.1.15,2013-03-13 01:38:00,
2013-03-12 21:40:00,40.6,30.1,30.09,WNW,298,7.0,8.0,66,0.00,,,0.00,Wunderground v.1.15,2013-03-13 01:40:00,
2013-03-12 21:42:00,40.6,30.5,30.09,NW,305,8.0,14.0,67,0.00,,,0.00,Wunderground v.1.15,2013-03-13 01:42:00,
2013-03-12 21:46:00,40.3,30.6,30.10,NW,306,7.0,14.0,68,0.00,,,0.00,Wunderground v.1.15,2013-03-13 01:46:00,
2013-03-12 21:48:00,40.3,30.6,30.10,NW,313,7.0,14.0,68,0.00,,,0.00,Wunderground v.1.15,2013-03-13 01:48:00,
2013-03-12 21:51:00,40.1,30.4,30.10,WNW,282,6.0,6.0,68,0.00,,,0.00,Wunderground v.1.15,2013-03-13 01:51:00,
2013-03-12 21:52:00,40.1,30.4,30.10,WNW,284,5.0,6.0,68,0.00,,,0.00,Wunderground v.1.15,2013-03-13 01:52:00,
2013-03-12 21:53:00,40.1,30.4,30.10,NW,312,5.0,8.0,68,0.00,,,0.00,Wunderground v.1.15,2013-03-13 01:53:00,
2013-03-12 21:57:00,40.0,30.6,30.10,WNW,294,5.0,8.0,69,0.00,,,0.00,Wunderground v.1.15,2013-03-13 01:57:00,
2013-03-12 21:58:00,40.0,30.6,30.10,NW,308,4.0,8.0,69,0.00,,,0.00,Wunderground v.1.15,2013-03-13 01:58:00,
2013-03-12 22:00:00,40.0,30.6,30.10,West,275,4.0,4.0,69,0.00,,,0.00,Wunderground v.1.15,2013-03-13 02:00:00,
2013-03-12 22:03:00,39.8,30.5,30.10,NW,319,3.0,4.0,69,0.00,,,0.00,Wunderground v.1.15,2013-03-13 02:03:00,
2013-03-12 22:04:00,39.8,30.5,30.10,WNW,292,3.0,4.0,69,0.00,,,0.00,Wunderground v.1.15,2013-03-13 02:04:00,
2013-03-12 22:06:00,39.8,30.5,30.10,West,270,3.0,4.0,69,0.00,,,0.00,Wunderground v.1.15,2013-03-13 02:06:00,
2013-03-12 22:09:00,39.8,30.5,30.10,WNW,302,3.0,8.0,69,0.00,,,0.00,Wunderground v.1.15,2013-03-13 02:09:00,
2013-03-12 22:10:00,39.8,30.1,30.10,WNW,302,4.0,4.0,68,0.00,,,0.00,Wunderground v.1.15,2013-03-13 02:10:00,
2013-03-12 22:11:00,39.8,30.1,30.10,WNW,302,4.0,4.0,68,0.00,,,0.00,Wunderground v.1.15,2013-03-13 02:11:00,
2013-03-12 22:13:00,39.7,30.0,30.10,West,267,4.0,5.0,68,0.00,,,0.00,Wunderground v.1.15,2013-03-13 02:13:00,
2013-03-12 22:16:00,39.7,30.0,30.10,West,267,5.0,7.0,68,0.00,,,0.00,Wunderground v.1.15,2013-03-13 02:16:00,
2013-03-12 22:19:00,39.7,30.4,30.10,West,264,5.0,10.0,69,0.00,,,0.00,Wunderground v.1.15,2013-03-13 02:19:00,
2013-03-12 22:20:00,39.6,30.3,30.10,NW,306,5.0,5.0,69,0.00,,,0.00,Wunderground v.1.15,2013-03-13 02:20:00,
2013-03-12 22:22:00,39.6,30.3,30.10,WNW,282,5.0,7.0,69,0.00,,,0.00,Wunderground v.1.15,2013-03-13 02:22:00,
2013-03-12 22:23:00,39.6,30.3,30.10,WNW,295,5.0,7.0,69,0.00,,,0.00,Wunderground v.1.15,2013-03-13 02:23:00,
2013-03-12 22:27:00,39.4,30.1,30.10,WNW,301,4.0,7.0,69,0.00,,,0.00,Wunderground v.1.15,2013-03-13 02:27:00,
2013-03-12 22:28:00,39.4,30.1,30.10,West,280,4.0,7.0,69,0.00,,,0.00,Wunderground v.1.15,2013-03-13 02:28:00,
2013-03-12 22:31:00,39.3,30.0,30.11,WNW,299,4.0,4.0,69,0.00,,,0.00,Wunderground v.1.15,2013-03-13 02:31:00,
2013-03-12 22:34:00,39.3,30.3,30.11,NW,308,3.0,4.0,70,0.00,,,0.00,Wunderground v.1.15,2013-03-13 02:34:00,
2013-03-12 22:35:00,39.3,30.3,30.11,WSW,237,3.0,8.0,70,0.00,,,0.00,Wunderground v.1.15,2013-03-13 02:35:00,
2013-03-12 22:36:00,39.1,30.1,30.11,NW,320,3.0,8.0,70,0.00,,,0.00,Wunderground v.1.15,2013-03-13 02:36:00,
2013-03-12 22:40:00,39.0,30.0,30.11,NW,305,4.0,4.0,70,0.00,,,0.00,Wunderground v.1.15,2013-03-13 02:40:00,
2013-03-12 22:41:00,39.0,30.0,30.11,West,261,4.0,5.0,70,0.00,,,0.00,Wunderground v.1.15,2013-03-13 02:41:00,
2013-03-12 22:42:00,39.0,30.0,30.11,NW,318,4.0,5.0,70,0.00,,,0.00,Wunderground v.1.15,2013-03-13 02:42:00,
2013-03-12 22:43:00,39.0,30.0,30.11,West,277,5.0,5.0,70,0.00,,,0.00,Wunderground v.1.15,2013-03-13 02:43:00,
2013-03-12 22:48:00,38.8,30.2,30.11,WNW,299,4.0,7.0,71,0.00,,,0.00,Wunderground v.1.15,2013-03-13 02:48:00,
2013-03-12 22:49:00,38.8,30.2,30.11,NW,305,3.0,7.0,71,0.00,,,0.00,Wunderground v.1.15,2013-03-13 02:49:00,
2013-03-12 22:50:00,38.7,30.1,30.11,NW,316,3.0,3.0,71,0.00,,,0.00,Wunderground v.1.15,2013-03-13 02:50:00,
2013-03-12 22:55:00,38.5,29.9,30.11,WNW,287,3.0,8.0,71,0.00,,,0.00,Wunderground v.1.15,2013-03-13 02:55:00,
2013-03-12 22:56:00,38.5,29.9,30.11,NW,305,3.0,8.0,71,0.00,,,0.00,Wunderground v.1.15,2013-03-13 02:56:00,
2013-03-12 22:59:00,38.4,29.8,30.11,WNW,299,3.0,8.0,71,0.00,,,0.00,Wunderground v.1.15,2013-03-13 02:59:00,
2013-03-12 23:00:00,38.4,29.8,30.12,WNW,299,3.0,3.0,71,0.00,,,0.00,Wunderground v.1.15,2013-03-13 03:00:00,
2013-03-12 23:01:00,38.4,29.8,30.12,WNW,284,3.0,9.0,71,0.00,,,0.00,Wunderground v.1.15,2013-03-13 03:01:00,
2013-03-12 23:03:00,38.4,29.8,30.12,WNW,284,3.0,9.0,71,0.00,,,0.00,Wunderground v.1.15,2013-03-13 03:03:00,
2013-03-12 23:06:00,38.3,29.7,30.12,West,270,3.0,9.0,71,0.00,,,0.00,Wunderground v.1.15,2013-03-13 03:06:00,
2013-03-12 23:09:00,38.3,29.4,30.12,WNW,284,3.0,9.0,70,0.00,,,0.00,Wunderground v.1.15,2013-03-13 03:09:00,
2013-03-12 23:12:00,38.3,29.4,30.12,West,271,3.0,11.0,70,0.00,,,0.00,Wunderground v.1.15,2013-03-13 03:12:00,
2013-03-12 23:15:00,38.3,29.4,30.11,WNW,296,3.0,11.0,70,0.00,,,0.00,Wunderground v.1.15,2013-03-13 03:15:00,
2013-03-12 23:16:00,38.3,29.0,30.11,West,268,3.0,12.0,69,0.00,,,0.00,Wunderground v.1.15,2013-03-13 03:16:00,
2013-03-12 23:19:00,38.3,29.0,30.11,NW,316,4.0,12.0,69,0.00,,,0.00,Wunderground v.1.15,2013-03-13 03:19:00,
2013-03-12 23:23:00,38.3,29.0,30.11,NW,306,5.0,6.0,69,0.00,,,0.00,Wunderground v.1.15,2013-03-13 03:23:00,
2013-03-12 23:24:00,38.3,29.0,30.11,NW,316,4.0,6.0,69,0.00,,,0.00,Wunderground v.1.15,2013-03-13 03:24:00,
2013-03-12 23:25:00,38.3,29.0,30.11,NNW,347,4.0,6.0,69,0.00,,,0.00,Wunderground v.1.15,2013-03-13 03:25:00,
2013-03-12 23:27:00,38.3,29.0,30.11,West,268,4.0,6.0,69,0.00,,,0.00,Wunderground v.1.15,2013-03-13 03:27:00,
2013-03-12 23:30:00,38.1,28.5,30.11,West,278,3.0,5.0,68,0.00,,,0.00,Wunderground v.1.15,2013-03-13 03:30:00,
2013-03-12 23:34:00,38.1,28.5,30.11,WNW,298,4.0,5.0,68,0.00,,,0.00,Wunderground v.1.15,2013-03-13 03:34:00,
2013-03-12 23:36:00,38.1,28.5,30.11,WNW,295,3.0,5.0,68,0.00,,,0.00,Wunderground v.1.15,2013-03-13 03:36:00,
2013-03-12 23:37:00,38.0,28.4,30.11,WNW,292,3.0,5.0,68,0.00,,,0.00,Wunderground v.1.15,2013-03-13 03:37:00,
2013-03-12 23:42:00,37.8,28.2,30.11,NW,316,3.0,5.0,68,0.00,,,0.00,Wunderground v.1.15,2013-03-13 03:42:00,
2013-03-12 23:43:00,37.8,28.2,30.11,WNW,287,3.0,5.0,68,0.00,,,0.00,Wunderground v.1.15,2013-03-13 03:43:00,
2013-03-12 23:44:00,37.8,28.2,30.11,WNW,285,3.0,5.0,68,0.00,,,0.00,Wunderground v.1.15,2013-03-13 03:44:00,
2013-03-12 23:48:00,37.7,28.1,30.11,WNW,282,3.0,5.0,68,0.00,,,0.00,Wunderground v.1.15,2013-03-13 03:48:00,
2013-03-12 23:49:00,37.7,28.1,30.11,WNW,288,3.0,5.0,68,0.00,,,0.00,Wunderground v.1.15,2013-03-13 03:49:00,
2013-03-12 23:51:00,37.7,27.7,30.11,West,280,3.0,8.0,67,0.00,,,0.00,Wunderground v.1.15,2013-03-13 03:51:00,
2013-03-12 23:52:00,37.7,27.7,30.11,WNW,285,4.0,8.0,67,0.00,,,0.00,Wunderground v.1.15,2013-03-13 03:52:00,
2013-03-12 23:55:00,37.7,27.7,30.11,NW,308,5.0,11.0,67,0.00,,,0.00,Wunderground v.1.15,2013-03-13 03:55:00,
2013-03-12 23:57:00,37.7,27.7,30.11,West,278,5.0,11.0,67,0.00,,,0.00,Wunderground v.1.15,2013-03-13 03:57:00,